Wetterdaten: Mittwoch, 20.08.2014
Datum Zeit Temp. Aussen +5cm Feuchte Auss Luftdruck Regen Sonnenschein Regendauer UV Solar Windben
20.08.2014 00:00 10,1 C 8,9 C 88 % 1014,5 hPa 0,0 l/m 0 min 0 min 0,0 UV-I 0 W/m 24,7 km/h (4 Bft)
20.08.2014 00:02 10,1 C 8,9 C 88 % 1014,5 hPa 0,0 l/m 0 min 0 min 0,0 UV-I 0 W/m 14,2 km/h (3 Bft)
20.08.2014 00:05 10,1 C 8,9 C 88 % 1014,6 hPa 0,0 l/m 0 min 0 min 0,0 UV-I 0 W/m 17,7 km/h (3 Bft)
20.08.2014 00:06 10,1 C 8,9 C 88 % 1014,5 hPa 0,0 l/m 0 min 0 min 0,0 UV-I 0 W/m 14,2 km/h (3 Bft)
20.08.2014 00:08 10,0 C 8,9 C 88 % 1014,5 hPa 0,0 l/m 0 min 0 min 0,0 UV-I 0 W/m 10,7 km/h (2 Bft)
20.08.2014 00:10 10,0 C 8,9 C 88 % 1014,5 hPa 0,0 l/m 0 min 0 min 0,0 UV-I 0 W/m 10,7 km/h (2 Bft)
20.08.2014 00:12 10,0 C 8,9 C 88 % 1014,4 hPa 0,0 l/m 0 min 0 min 0,0 UV-I 0 W/m 21,3 km/h (4 Bft)
20.08.2014 00:14 9,9 C 8,9 C 88 % 1014,5 hPa 0,0 l/m 0 min 0 min 0,0 UV-I 0 W/m 17,7 km/h (3 Bft)
20.08.2014 00:16 9,9 C 8,9 C 88 % 1014,5 hPa 0,0 l/m 0 min 0 min 0,0 UV-I 0 W/m 14,2 km/h (3 Bft)
20.08.2014 00:18 9,9 C 8,9 C 88 % 1014,5 hPa 0,0 l/m 0 min 0 min 0,0 UV-I 0 W/m 14,2 km/h (3 Bft)
20.08.2014 00:20 9,9 C 8,9 C 88 % 1014,5 hPa 0,0 l/m 0 min 0 min 0,0 UV-I 0 W/m 10,7 km/h (2 Bft)
20.08.2014 00:22 9,8 C 8,9 C 88 % 1014,4 hPa 0,0 l/m 0 min 0 min 0,0 UV-I 0 W/m 14,2 km/h (3 Bft)
20.08.2014 00:24 9,8 C 8,9 C 89 % 1014,4 hPa 0,0 l/m 0 min 0 min 0,0 UV-I 0 W/m 24,7 km/h (4 Bft)
20.08.2014 00:26 9,8 C 8,9 C 89 % 1014,4 hPa 0,0 l/m 0 min 0 min 0,0 UV-I 0 W/m 17,7 km/h (3 Bft)
20.08.2014 00:28 9,8 C 8,9 C 89 % 1014,4 hPa 0,0 l/m 0 min 0 min 0,0 UV-I 0 W/m 14,2 km/h (3 Bft)
20.08.2014 00:30 9,8 C 8,9 C 89 % 1014,4 hPa 0,0 l/m 0 min 0 min 0,0 UV-I 0 W/m 14,2 km/h (3 Bft)
20.08.2014 00:32 9,8 C 8,9 C 89 % 1014,5 hPa 0,0 l/m 0 min 0 min 0,0 UV-I 0 W/m 10,7 km/h (2 Bft)
20.08.2014 00:34 9,7 C 8,9 C 89 % 1014,5 hPa 0,0 l/m 0 min 0 min 0,0 UV-I 0 W/m 14,2 km/h (3 Bft)
20.08.2014 00:36 9,8 C 8,9 C 89 % 1014,5 hPa 0,0 l/m 0 min 0 min 0,0 UV-I 0 W/m 21,3 km/h (4 Bft)
20.08.2014 00:38 9,8 C 8,9 C 89 % 1014,4 hPa 0,0 l/m 0 min 0 min 0,0 UV-I 0 W/m 17,7 km/h (3 Bft)
20.08.2014 00:40 9,8 C 8,9 C 89 % 1014,6 hPa 0,0 l/m 0 min 0 min 0,0 UV-I 0 W/m 21,3 km/h (4 Bft)
20.08.2014 00:42 9,8 C 8,9 C 88 % 1014,5 hPa 0,0 l/m 0 min 0 min 0,0 UV-I 0 W/m 17,7 km/h (3 Bft)
20.08.2014 00:44 9,8 C 8,9 C 88 % 1014,5 hPa 0,0 l/m 0 min 0 min 0,0 UV-I 0 W/m 14,2 km/h (3 Bft)
20.08.2014 00:46 9,7 C 8,9 C 88 % 1014,5 hPa 0,0 l/m 0 min 0 min 0,0 UV-I 0 W/m 17,7 km/h (3 Bft)
20.08.2014 00:48 9,7 C 8,9 C 88 % 1014,4 hPa 0,0 l/m 0 min 0 min 0,0 UV-I 0 W/m 14,2 km/h (3 Bft)
20.08.2014 00:50 9,7 C 8,9 C 88 % 1014,5 hPa 0,0 l/m 0 min 0 min 0,0 UV-I 0 W/m 17,7 km/h (3 Bft)
20.08.2014 00:52 9,7 C 8,9 C 88 % 1014,5 hPa 0,0 l/m 0 min 0 min 0,0 UV-I 0 W/m 17,7 km/h (3 Bft)
20.08.2014 00:54 9,8 C 8,9 C 88 % 1014,5 hPa 0,0 l/m 0 min 0 min 0,0 UV-I 0 W/m 14,2 km/h (3 Bft)
20.08.2014 00:56 9,8 C 8,9 C 88 % 1014,4 hPa 0,0 l/m 0 min 0 min 0,0 UV-I 0 W/m 28,2 km/h (4 Bft)
20.08.2014 00:58 9,7 C 8,9 C 88 % 1014,5 hPa 0,0 l/m 0 min 0 min 0,0 UV-I 0 W/m 21,3 km/h (4 Bft)
20.08.2014 01:00 9,7 C 8,9 C 88 % 1014,6 hPa 0,0 l/m 0 min 0 min 0,0 UV-I 0 W/m 17,7 km/h (3 Bft)
20.08.2014 01:02 9,7 C 8,9 C 88 % 1014,6 hPa 0,0 l/m 0 min 0 min 0,0 UV-I 0 W/m 17,7 km/h (3 Bft)
20.08.2014 01:04 9,7 C 8,9 C 88 % 1014,6 hPa 0,0 l/m 0 min 0 min 0,0 UV-I 0 W/m 14,2 km/h (3 Bft)
20.08.2014 01:06 9,7 C 8,3 C 88 % 1014,6 hPa 0,0 l/m 0 min 0 min 0,0 UV-I 0 W/m 17,7 km/h (3 Bft)
20.08.2014 01:08 9,7 C 8,3 C 88 % 1014,6 hPa 0,0 l/m 0 min 0 min 0,0 UV-I 0 W/m 17,7 km/h (3 Bft)
20.08.2014 01:10 9,6 C 8,3 C 88 % 1014,5 hPa 0,0 l/m 0 min 0 min 0,0 UV-I 0 W/m 17,7 km/h (3 Bft)
20.08.2014 01:12 9,6 C 8,3 C 88 % 1014,6 hPa 0,0 l/m 0 min 0 min 0,0 UV-I 0 W/m 17,7 km/h (3 Bft)
20.08.2014 01:14 9,6 C 8,9 C 88 % 1014,6 hPa 0,0 l/m 0 min 0 min 0,0 UV-I 0 W/m 17,7 km/h (3 Bft)
20.08.2014 01:16 9,6 C 8,9 C 88 % 1014,6 hPa 0,0 l/m 0 min 0 min 0,0 UV-I 0 W/m 21,3 km/h (4 Bft)
20.08.2014 01:18 9,6 C 8,9 C 88 % 1014,6 hPa 0,0 l/m 0 min 0 min 0,0 UV-I 0 W/m 17,7 km/h (3 Bft)
20.08.2014 01:20 9,6 C 8,9 C 89 % 1014,6 hPa 0,0 l/m 0 min 0 min 0,0 UV-I 0 W/m 14,2 km/h (3 Bft)
20.08.2014 01:22 9,6 C 8,3 C 89 % 1014,5 hPa 0,0 l/m 0 min 0 min 0,0 UV-I 0 W/m 10,7 km/h (2 Bft)
20.08.2014 01:24 9,6 C 8,3 C 89 % 1014,6 hPa 0,0 l/m 0 min 0 min 0,0 UV-I 0 W/m 14,2 km/h (3 Bft)
20.08.2014 01:26 9,5 C 8,3 C 89 % 1014,6 hPa 0,0 l/m 0 min 0 min 0,0 UV-I 0 W/m 14,2 km/h (3 Bft)
20.08.2014 01:28 9,4 C 8,3 C 89 % 1014,6 hPa 0,0 l/m 0 min 0 min 0,0 UV-I 0 W/m 17,7 km/h (3 Bft)
20.08.2014 01:30 9,4 C 8,3 C 89 % 1014,6 hPa 0,0 l/m 0 min 0 min 0,0 UV-I 0 W/m 17,7 km/h (3 Bft)
20.08.2014 01:32 9,4 C 8,3 C 89 % 1014,6 hPa 0,0 l/m 0 min 0 min 0,0 UV-I 0 W/m 10,7 km/h (2 Bft)
20.08.2014 01:34 9,4 C 8,3 C 90 % 1014,7 hPa 0,0 l/m 0 min 0 min 0,0 UV-I 0 W/m 14,2 km/h (3 Bft)
20.08.2014 01:36 9,4 C 8,3 C 90 % 1014,6 hPa 0,0 l/m 0 min 0 min 0,0 UV-I 0 W/m 10,7 km/h (2 Bft)
20.08.2014 01:38 9,3 C 8,3 C 90 % 1014,7 hPa 0,0 l/m 0 min 0 min 0,0 UV-I 0 W/m 14,2 km/h (3 Bft)
20.08.2014 01:40 9,3 C 7,8 C 90 % 1014,7 hPa 0,0 l/m 0 min 0 min 0,0 UV-I 0 W/m 10,7 km/h (2 Bft)
20.08.2014 01:42 9,2 C 7,8 C 90 % 1014,7 hPa 0,0 l/m 0 min 0 min 0,0 UV-I 0 W/m 10,7 km/h (2 Bft)
20.08.2014 01:44 9,2 C 7,8 C 90 % 1014,6 hPa 0,0 l/m 0 min 0 min 0,0 UV-I 0 W/m 10,7 km/h (2 Bft)
20.08.2014 01:46 9,2 C 7,8 C 90 % 1014,6 hPa 0,0 l/m 0 min 0 min 0,0 UV-I 0 W/m 0,0 km/h (0 Bft)
20.08.2014 01:48 9,2 C 7,8 C 90 % 1014,6 hPa 0,0 l/m 0 min 0 min 0,0 UV-I 0 W/m 14,2 km/h (3 Bft)
20.08.2014 01:50 9,1 C 8,3 C 90 % 1014,6 hPa 0,0 l/m 0 min 0 min 0,0 UV-I 0 W/m 10,7 km/h (2 Bft)
20.08.2014 01:52 9,1 C 7,8 C 91 % 1014,6 hPa 0,0 l/m 0 min 0 min 0,0 UV-I 0 W/m 17,7 km/h (3 Bft)
20.08.2014 01:54 9,1 C 8,3 C 91 % 1014,7 hPa 0,0 l/m 0 min 0 min 0,0 UV-I 0 W/m 14,2 km/h (3 Bft)
20.08.2014 01:56 9,1 C 7,8 C 91 % 1014,6 hPa 0,0 l/m 0 min 0 min 0,0 UV-I 0 W/m 14,2 km/h (3 Bft)
20.08.2014 01:58 9,1 C 8,3 C 91 % 1014,7 hPa 0,0 l/m 0 min 0 min 0,0 UV-I 0 W/m 14,2 km/h (3 Bft)
20.08.2014 02:00 9,1 C 8,3 C 91 % 1014,7 hPa 0,0 l/m 0 min 0 min 0,0 UV-I 0 W/m 17,7 km/h (3 Bft)
20.08.2014 02:02 9,1 C 8,3 C 91 % 1014,8 hPa 0,0 l/m 0 min 0 min 0,0 UV-I 0 W/m 17,7 km/h (3 Bft)
20.08.2014 02:04 9,1 C 8,3 C 91 % 1014,8 hPa 0,0 l/m 0 min 0 min 0,0 UV-I 0 W/m 17,7 km/h (3 Bft)
20.08.2014 02:06 9,0 C 8,3 C 92 % 1014,8 hPa 0,0 l/m 0 min 0 min 0,0 UV-I 0 W/m 21,3 km/h (4 Bft)
20.08.2014 02:08 9,1 C 8,3 C 92 % 1014,8 hPa 0,0 l/m 0 min 0 min 0,0 UV-I 0 W/m 21,3 km/h (4 Bft)
20.08.2014 02:10 9,0 C 8,3 C 92 % 1014,8 hPa 0,0 l/m 0 min 0 min 0,0 UV-I 0 W/m 17,7 km/h (3 Bft)
20.08.2014 02:12 9,0 C 8,3 C 92 % 1014,8 hPa 0,0 l/m 0 min 0 min 0,0 UV-I 0 W/m 21,3 km/h (4 Bft)
20.08.2014 02:14 9,0 C 8,3 C 92 % 1014,9 hPa 0,0 l/m 0 min 0 min 0,0 UV-I 0 W/m 17,7 km/h (3 Bft)
20.08.2014 02:16 9,0 C 8,3 C 92 % 1014,9 hPa 0,0 l/m 0 min 0 min 0,0 UV-I 0 W/m 17,7 km/h (3 Bft)
20.08.2014 02:18 8,9 C 7,8 C 92 % 1014,8 hPa 0,0 l/m 0 min 0 min 0,0 UV-I 0 W/m 17,7 km/h (3 Bft)
20.08.2014 02:20 8,9 C 7,8 C 92 % 1014,8 hPa 0,0 l/m 0 min 0 min 0,0 UV-I 0 W/m 10,7 km/h (2 Bft)
20.08.2014 02:22 8,9 C 7,8 C 92 % 1014,8 hPa 0,0 l/m 0 min 0 min 0,0 UV-I 0 W/m 17,7 km/h (3 Bft)
20.08.2014 02:24 8,9 C 7,8 C 92 % 1014,8 hPa 0,0 l/m 0 min 0 min 0,0 UV-I 0 W/m 14,2 km/h (3 Bft)
20.08.2014 02:26 8,9 C 7,8 C 92 % 1014,8 hPa 0,0 l/m 0 min 0 min 0,0 UV-I 0 W/m 14,2 km/h (3 Bft)
20.08.2014 02:28 8,9 C 7,8 C 92 % 1014,8 hPa 0,0 l/m 0 min 0 min 0,0 UV-I 0 W/m 17,7 km/h (3 Bft)
20.08.2014 02:30 8,9 C 7,8 C 92 % 1014,7 hPa 0,0 l/m 0 min 0 min 0,0 UV-I 0 W/m 14,2 km/h (3 Bft)
20.08.2014 02:32 8,9 C 7,8 C 92 % 1014,8 hPa 0,0 l/m 0 min 0 min 0,0 UV-I 0 W/m 17,7 km/h (3 Bft)
20.08.2014 02:34 8,9 C 7,8 C 92 % 1014,8 hPa 0,0 l/m 0 min 0 min 0,0 UV-I 0 W/m 14,2 km/h (3 Bft)
20.08.2014 02:36 8,9 C 7,8 C 92 % 1014,7 hPa 0,0 l/m 0 min 0 min 0,0 UV-I 0 W/m 17,7 km/h (3 Bft)
20.08.2014 02:38 8,9 C 7,8 C 92 % 1014,8 hPa 0,0 l/m 0 min 0 min 0,0 UV-I 0 W/m 17,7 km/h (3 Bft)
20.08.2014 02:40 8,9 C 7,8 C 92 % 1014,7 hPa 0,0 l/m 0 min 0 min 0,0 UV-I 0 W/m 17,7 km/h (3 Bft)
20.08.2014 02:42 8,9 C 7,8 C 93 % 1014,7 hPa 0,0 l/m 0 min 0 min 0,0 UV-I 0 W/m 14,2 km/h (3 Bft)
20.08.2014 02:44 8,9 C 7,8 C 93 % 1014,7 hPa 0,0 l/m 0 min 0 min 0,0 UV-I 0 W/m 17,7 km/h (3 Bft)
20.08.2014 02:46 8,9 C 7,8 C 93 % 1014,7 hPa 0,0 l/m 0 min 0 min 0,0 UV-I 0 W/m 14,2 km/h (3 Bft)
20.08.2014 02:48 8,9 C 7,8 C 93 % 1014,7 hPa 0,0 l/m 0 min 0 min 0,0 UV-I 0 W/m 17,7 km/h (3 Bft)
20.08.2014 02:50 8,9 C 8,3 C 93 % 1014,7 hPa 0,0 l/m 0 min 0 min 0,0 UV-I 0 W/m 14,2 km/h (3 Bft)
20.08.2014 02:52 8,9 C 7,8 C 93 % 1014,7 hPa 0,0 l/m 0 min 0 min 0,0 UV-I 0 W/m 17,7 km/h (3 Bft)
20.08.2014 02:54 8,9 C 8,3 C 93 % 1014,7 hPa 0,0 l/m 0 min 0 min 0,0 UV-I 0 W/m 24,7 km/h (4 Bft)
20.08.2014 02:56 8,9 C 8,3 C 93 % 1014,8 hPa 0,0 l/m 0 min 0 min 0,0 UV-I 0 W/m 24,7 km/h (4 Bft)
20.08.2014 02:58 8,9 C 8,3 C 93 % 1014,7 hPa 0,0 l/m 0 min 0 min 0,0 UV-I 0 W/m 17,7 km/h (3 Bft)
20.08.2014 03:00 8,9 C 7,8 C 93 % 1014,8 hPa 0,0 l/m 0 min 0 min 0,0 UV-I 0 W/m 17,7 km/h (3 Bft)
20.08.2014 03:02 8,9 C 8,3 C 93 % 1014,8 hPa 0,0 l/m 0 min 0 min 0,0 UV-I 0 W/m 17,7 km/h (3 Bft)
20.08.2014 03:04 8,9 C 8,3 C 93 % 1014,8 hPa 0,0 l/m 0 min 0 min 0,0 UV-I 0 W/m 17,7 km/h (3 Bft)
20.08.2014 03:06 8,9 C 8,3 C 93 % 1014,8 hPa 0,0 l/m 0 min 0 min 0,0 UV-I 0 W/m 14,2 km/h (3 Bft)
20.08.2014 03:08 8,9 C 7,8 C 93 % 1014,8 hPa 0,0 l/m 0 min 0 min 0,0 UV-I 0 W/m 21,3 km/h (4 Bft)
20.08.2014 03:10 8,9 C 7,8 C 93 % 1014,8 hPa 0,0 l/m 0 min 0 min 0,0 UV-I 0 W/m 14,2 km/h (3 Bft)
20.08.2014 03:12 8,9 C 7,8 C 93 % 1014,7 hPa 0,0 l/m 0 min 0 min 0,0 UV-I 0 W/m 17,7 km/h (3 Bft)
20.08.2014 03:14 8,9 C 8,3 C 93 % 1014,8 hPa 0,0 l/m 0 min 0 min 0,0 UV-I 0 W/m 17,7 km/h (3 Bft)
20.08.2014 03:16 8,9 C 8,3 C 93 % 1014,7 hPa 0,0 l/m 0 min 0 min 0,0 UV-I 0 W/m 14,2 km/h (3 Bft)
20.08.2014 03:18 9,0 C 8,3 C 93 % 1014,8 hPa 0,0 l/m 0 min 0 min 0,0 UV-I 0 W/m 21,3 km/h (4 Bft)
20.08.2014 03:20 9,0 C 8,3 C 93 % 1014,8 hPa 0,0 l/m 0 min 0 min 0,0 UV-I 0 W/m 17,7 km/h (3 Bft)
20.08.2014 03:22 9,0 C 8,3 C 93 % 1014,8 hPa 0,0 l/m 0 min 0 min 0,0 UV-I 0 W/m 17,7 km/h (3 Bft)
20.08.2014 03:24 9,0 C 8,3 C 93 % 1014,8 hPa 0,0 l/m 0 min 0 min 0,0 UV-I 0 W/m 10,7 km/h (2 Bft)
20.08.2014 03:26 9,0 C 8,3 C 93 % 1014,8 hPa 0,0 l/m 0 min 0 min 0,0 UV-I 0 W/m 17,7 km/h (3 Bft)
20.08.2014 03:28 9,0 C 8,3 C 93 % 1014,8 hPa 0,0 l/m 0 min 0 min 0,0 UV-I 0 W/m 14,2 km/h (3 Bft)
20.08.2014 03:30 9,0 C 8,3 C 93 % 1014,8 hPa 0,0 l/m 0 min 0 min 0,0 UV-I 0 W/m 10,7 km/h (2 Bft)
20.08.2014 03:32 9,0 C 8,3 C 93 % 1014,8 hPa 0,0 l/m 0 min 0 min 0,0 UV-I 0 W/m 17,7 km/h (3 Bft)
20.08.2014 03:34 9,0 C 8,3 C 93 % 1014,8 hPa 0,0 l/m 0 min 0 min 0,0 UV-I 0 W/m 24,7 km/h (4 Bft)
20.08.2014 03:36 9,0 C 8,3 C 93 % 1014,9 hPa 0,0 l/m 0 min 0 min 0,0 UV-I 0 W/m 17,7 km/h (3 Bft)
20.08.2014 03:38 9,0 C 8,3 C 93 % 1014,9 hPa 0,0 l/m 0 min 0 min 0,0 UV-I 0 W/m 17,7 km/h (3 Bft)
20.08.2014 03:40 9,0 C 8,3 C 93 % 1014,9 hPa 0,0 l/m 0 min 0 min 0,0 UV-I 0 W/m 17,7 km/h (3 Bft)
20.08.2014 03:42 9,0 C 8,3 C 93 % 1014,9 hPa 0,0 l/m 0 min 0 min 0,0 UV-I 0 W/m 17,7 km/h (3 Bft)
20.08.2014 03:44 9,0 C 8,3 C 93 % 1014,9 hPa 0,0 l/m 0 min 0 min 0,0 UV-I 0 W/m 17,7 km/h (3 Bft)
20.08.2014 03:46 9,0 C 8,3 C 93 % 1014,9 hPa 0,0 l/m 0 min 0 min 0,0 UV-I 0 W/m 17,7 km/h (3 Bft)
20.08.2014 03:48 8,9 C 8,3 C 93 % 1014,9 hPa 0,0 l/m 0 min 0 min 0,0 UV-I 0 W/m 14,2 km/h (3 Bft)
20.08.2014 03:50 8,9 C 7,8 C 93 % 1014,9 hPa 0,0 l/m 0 min 0 min 0,0 UV-I 0 W/m 17,7 km/h (3 Bft)
20.08.2014 03:52 8,9 C 7,8 C 93 % 1014,8 hPa 0,0 l/m 0 min 0 min 0,0 UV-I 0 W/m 17,7 km/h (3 Bft)
20.08.2014 03:54 8,9 C 7,8 C 93 % 1014,9 hPa 0,0 l/m 0 min 0 min 0,0 UV-I 0 W/m 21,3 km/h (4 Bft)
20.08.2014 03:56 8,9 C 7,8 C 93 % 1014,9 hPa 0,0 l/m 0 min 0 min 0,0 UV-I 0 W/m 17,7 km/h (3 Bft)
20.08.2014 03:58 8,9 C 7,8 C 93 % 1015,0 hPa 0,0 l/m 0 min 0 min 0,0 UV-I 0 W/m 14,2 km/h (3 Bft)
20.08.2014 04:00 8,9 C 7,8 C 93 % 1014,9 hPa 0,0 l/m 0 min 0 min 0,0 UV-I 0 W/m 14,2 km/h (3 Bft)
20.08.2014 04:02 8,9 C 7,8 C 93 % 1014,9 hPa 0,0 l/m 0 min 0 min 0,0 UV-I 0 W/m 17,7 km/h (3 Bft)
20.08.2014 04:04 8,9 C 7,8 C 93 % 1015,0 hPa 0,0 l/m 0 min 0 min 0,0 UV-I 0 W/m 14,2 km/h (3 Bft)
20.08.2014 04:06 8,9 C 7,8 C 93 % 1015,0 hPa 0,0 l/m 0 min 0 min 0,0 UV-I 0 W/m 14,2 km/h (3 Bft)
20.08.2014 04:08 8,8 C 7,8 C 93 % 1014,9 hPa 0,0 l/m 0 min 0 min 0,0 UV-I 0 W/m 17,7 km/h (3 Bft)
20.08.2014 04:10 8,8 C 7,8 C 93 % 1014,9 hPa 0,0 l/m 0 min 0 min 0,0 UV-I 0 W/m 10,7 km/h (2 Bft)
20.08.2014 04:12 8,8 C 7,8 C 93 % 1014,8 hPa 0,0 l/m 0 min 0 min 0,0 UV-I 0 W/m 14,2 km/h (3 Bft)
20.08.2014 04:14 8,8 C 7,8 C 93 % 1014,9 hPa 0,0 l/m 0 min 0 min 0,0 UV-I 0 W/m 14,2 km/h (3 Bft)
20.08.2014 04:16 8,8 C 7,8 C 93 % 1014,9 hPa 0,0 l/m 0 min 0 min 0,0 UV-I 0 W/m 14,2 km/h (3 Bft)
20.08.2014 04:18 8,7 C 7,8 C 93 % 1014,9 hPa 0,0 l/m 0 min 0 min 0,0 UV-I 0 W/m 7,1 km/h (2 Bft)
20.08.2014 04:20 8,7 C 7,8 C 93 % 1015,0 hPa 0,0 l/m 0 min 0 min 0,0 UV-I 0 W/m 14,2 km/h (3 Bft)
20.08.2014 04:22 8,7 C 7,8 C 93 % 1014,9 hPa 0,0 l/m 0 min 0 min 0,0 UV-I 0 W/m 14,2 km/h (3 Bft)
20.08.2014 04:24 8,7 C 7,8 C 93 % 1014,9 hPa 0,0 l/m 0 min 0 min 0,0 UV-I 0 W/m 10,7 km/h (2 Bft)
20.08.2014 04:26 8,7 C 7,8 C 93 % 1015,0 hPa 0,0 l/m 0 min 0 min 0,0 UV-I 0 W/m 17,7 km/h (3 Bft)
20.08.2014 04:28 8,7 C 7,8 C 93 % 1015,0 hPa 0,0 l/m 0 min 0 min 0,0 UV-I 0 W/m 24,7 km/h (4 Bft)
20.08.2014 04:30 8,7 C 7,8 C 93 % 1015,0 hPa 0,0 l/m 0 min 0 min 0,0 UV-I 0 W/m 10,7 km/h (2 Bft)
20.08.2014 04:32 8,6 C 7,8 C 93 % 1015,0 hPa 0,0 l/m 0 min 0 min 0,0 UV-I 0 W/m 14,2 km/h (3 Bft)
20.08.2014 04:34 8,6 C 7,8 C 93 % 1015,0 hPa 0,0 l/m 0 min 0 min 0,0 UV-I 0 W/m 10,7 km/h (2 Bft)
20.08.2014 04:36 8,6 C 7,8 C 93 % 1015,0 hPa 0,0 l/m 0 min 0 min 0,0 UV-I 0 W/m 14,2 km/h (3 Bft)
20.08.2014 04:38 8,6 C 7,8 C 93 % 1015,0 hPa 0,0 l/m 0 min 0 min 0,0 UV-I 0 W/m 17,7 km/h (3 Bft)
20.08.2014 04:40 8,6 C 7,8 C 93 % 1015,0 hPa 0,0 l/m 0 min 0 min 0,0 UV-I 0 W/m 10,7 km/h (2 Bft)
20.08.2014 04:42 8,6 C 7,8 C 93 % 1015,0 hPa 0,0 l/m 0 min 0 min 0,0 UV-I 0 W/m 10,7 km/h (2 Bft)
20.08.2014 04:44 8,6 C 7,8 C 93 % 1015,1 hPa 0,0 l/m 0 min 0 min 0,0 UV-I 0 W/m 10,7 km/h (2 Bft)
20.08.2014 04:46 8,6 C 7,8 C 93 % 1015,1 hPa 0,0 l/m 0 min 0 min 0,0 UV-I 0 W/m 7,1 km/h (2 Bft)
20.08.2014 04:48 8,6 C 7,8 C 93 % 1015,1 hPa 0,0 l/m 0 min 0 min 0,0 UV-I 0 W/m 10,7 km/h (2 Bft)
20.08.2014 04:50 8,6 C 7,8 C 93 % 1015,1 hPa 0,0 l/m 0 min 0 min 0,0 UV-I 0 W/m 14,2 km/h (3 Bft)
20.08.2014 04:52 8,6 C 7,8 C 93 % 1015,1 hPa 0,0 l/m 0 min 0 min 0,0 UV-I 0 W/m 10,7 km/h (2 Bft)
20.08.2014 04:54 8,5 C 7,8 C 93 % 1015,1 hPa 0,0 l/m 0 min 0 min 0,0 UV-I 0 W/m 17,7 km/h (3 Bft)
20.08.2014 04:56 8,5 C 7,8 C 94 % 1015,1 hPa 0,0 l/m 0 min 0 min 0,0 UV-I 0 W/m 3,5 km/h (1 Bft)
20.08.2014 04:58 8,5 C 7,8 C 94 % 1015,0 hPa 0,0 l/m 0 min 0 min 0,0 UV-I 0 W/m 10,7 km/h (2 Bft)
20.08.2014 05:00 8,4 C 7,8 C 94 % 1015,0 hPa 0,0 l/m 0 min 0 min 0,0 UV-I 0 W/m 21,3 km/h (4 Bft)
20.08.2014 05:02 8,5 C 7,8 C 94 % 1015,1 hPa 0,0 l/m 0 min 0 min 0,0 UV-I 0 W/m 14,2 km/h (3 Bft)
20.08.2014 05:04 8,4 C 7,8 C 94 % 1015,1 hPa 0,0 l/m 0 min 0 min 0,0 UV-I 0 W/m 14,2 km/h (3 Bft)
20.08.2014 05:06 8,4 C 7,8 C 94 % 1015,0 hPa 0,0 l/m 0 min 0 min 0,0 UV-I 0 W/m 17,7 km/h (3 Bft)
20.08.2014 05:08 8,5 C 7,8 C 94 % 1015,0 hPa 0,0 l/m 0 min 0 min 0,0 UV-I 0 W/m 10,7 km/h (2 Bft)
20.08.2014 05:10 8,4 C 7,8 C 94 % 1015,0 hPa 0,0 l/m 0 min 0 min 0,0 UV-I 0 W/m 21,3 km/h (4 Bft)
20.08.2014 05:12 8,5 C 7,8 C 94 % 1015,1 hPa 0,0 l/m 0 min 0 min 0,0 UV-I 0 W/m 17,7 km/h (3 Bft)
20.08.2014 05:14 8,4 C 7,8 C 94 % 1015,0 hPa 0,0 l/m 0 min 0 min 0,0 UV-I 0 W/m 14,2 km/h (3 Bft)
20.08.2014 05:16 8,5 C 7,8 C 94 % 1015,0 hPa 0,0 l/m 0 min 0 min 0,0 UV-I 0 W/m 24,7 km/h (4 Bft)
20.08.2014 05:18 8,4 C 7,8 C 94 % 1015,0 hPa 0,0 l/m 0 min 0 min 0,0 UV-I 0 W/m 17,7 km/h (3 Bft)
20.08.2014 05:20 8,5 C 7,8 C 94 % 1015,0 hPa 0,0 l/m 0 min 0 min 0,0 UV-I 0 W/m 14,2 km/h (3 Bft)
20.08.2014 05:22 8,5 C 7,8 C 94 % 1015,0 hPa 0,0 l/m 0 min 0 min 0,0 UV-I 0 W/m 17,7 km/h (3 Bft)
20.08.2014 05:24 8,5 C 7,8 C 94 % 1015,0 hPa 0,0 l/m 0 min 0 min 0,0 UV-I 0 W/m 21,3 km/h (4 Bft)
20.08.2014 05:26 8,5 C 7,8 C 94 % 1015,1 hPa 0,0 l/m 0 min 0 min 0,0 UV-I 0 W/m 14,2 km/h (3 Bft)
20.08.2014 05:28 8,5 C 7,8 C 94 % 1015,0 hPa 0,0 l/m 0 min 0 min 0,0 UV-I 0 W/m 17,7 km/h (3 Bft)
20.08.2014 05:30 8,4 C 7,8 C 94 % 1015,1 hPa 0,0 l/m 0 min 0 min 0,0 UV-I 0 W/m 14,2 km/h (3 Bft)
20.08.2014 05:32 8,4 C 7,8 C 94 % 1015,0 hPa 0,0 l/m 0 min 0 min 0,0 UV-I 0 W/m 24,7 km/h (4 Bft)
20.08.2014 05:34 8,5 C 7,8 C 94 % 1015,0 hPa 0,0 l/m 0 min 0 min 0,0 UV-I 0 W/m 21,3 km/h (4 Bft)
20.08.2014 05:36 8,5 C 7,8 C 94 % 1015,1 hPa 0,0 l/m 0 min 0 min 0,0 UV-I 0 W/m 21,3 km/h (4 Bft)
20.08.2014 05:38 8,5 C 7,8 C 94 % 1015,1 hPa 0,0 l/m 0 min 0 min 0,0 UV-I 0 W/m 24,7 km/h (4 Bft)
20.08.2014 05:40 8,5 C 7,8 C 94 % 1015,1 hPa 0,0 l/m 0 min 0 min 0,0 UV-I 0 W/m 21,3 km/h (4 Bft)
20.08.2014 05:42 8,5 C 7,8 C 94 % 1015,1 hPa 0,0 l/m 0 min 0 min 0,0 UV-I 0 W/m 21,3 km/h (4 Bft)
20.08.2014 05:44 8,5 C 7,8 C 94 % 1015,1 hPa 0,0 l/m 0 min 0 min 0,0 UV-I 0 W/m 21,3 km/h (4 Bft)
20.08.2014 05:46 8,5 C 7,8 C 94 % 1015,2 hPa 0,0 l/m 0 min 0 min 0,0 UV-I 0 W/m 21,3 km/h (4 Bft)
20.08.2014 05:48 8,4 C 7,8 C 94 % 1015,1 hPa 0,0 l/m 0 min 0 min 0,0 UV-I 0 W/m 17,7 km/h (3 Bft)
20.08.2014 05:50 8,4 C 7,8 C 94 % 1015,2 hPa 0,0 l/m 0 min 0 min 0,0 UV-I 0 W/m 17,7 km/h (3 Bft)
20.08.2014 05:52 8,4 C 7,8 C 94 % 1015,2 hPa 0,0 l/m 0 min 0 min 0,0 UV-I 0 W/m 17,7 km/h (3 Bft)
20.08.2014 05:54 8,4 C 7,8 C 94 % 1015,2 hPa 0,0 l/m 0 min 0 min 0,0 UV-I 0 W/m 14,2 km/h (3 Bft)
20.08.2014 05:56 8,4 C 7,8 C 94 % 1015,2 hPa 0,0 l/m 0 min 0 min 0,0 UV-I 0 W/m 21,3 km/h (4 Bft)
20.08.2014 05:58 8,4 C 7,8 C 94 % 1015,2 hPa 0,0 l/m 0 min 0 min 0,0 UV-I 0 W/m 14,2 km/h (3 Bft)
20.08.2014 06:00 8,4 C 7,8 C 94 % 1015,2 hPa 0,0 l/m 0 min 0 min 0,0 UV-I 0 W/m 17,7 km/h (3 Bft)
20.08.2014 06:02 8,4 C 7,8 C 94 % 1015,2 hPa 0,0 l/m 0 min 0 min 0,0 UV-I 0 W/m 21,3 km/h (4 Bft)
20.08.2014 06:06 8,4 C 7,8 C 94 % 1015,2 hPa 0,0 l/m 0 min 0 min 0,0 UV-I 0 W/m 21,3 km/h (4 Bft)
20.08.2014 06:08 8,4 C 7,8 C 94 % 1015,2 hPa 0,0 l/m 0 min 0 min 0,0 UV-I 0 W/m 17,7 km/h (3 Bft)
20.08.2014 06:10 8,4 C 7,8 C 94 % 1015,3 hPa 0,0 l/m 0 min 0 min 0,0 UV-I 0 W/m 17,7 km/h (3 Bft)
20.08.2014 06:12 8,4 C 7,8 C 94 % 1015,3 hPa 0,0 l/m 0 min 0 min 0,0 UV-I 0 W/m 14,2 km/h (3 Bft)
20.08.2014 06:14 8,4 C 7,8 C 94 % 1015,3 hPa 0,0 l/m 0 min 0 min 0,0 UV-I 0 W/m 17,7 km/h (3 Bft)
20.08.2014 06:16 8,4 C 7,8 C 94 % 1015,3 hPa 0,0 l/m 0 min 0 min 0,0 UV-I 0 W/m 17,7 km/h (3 Bft)
20.08.2014 06:18 8,4 C 7,8 C 94 % 1015,3 hPa 0,0 l/m 0 min 0 min 0,0 UV-I 0 W/m 14,2 km/h (3 Bft)
20.08.2014 06:20 8,3 C 7,8 C 94 % 1015,3 hPa 0,0 l/m 0 min 0 min 0,0 UV-I 0 W/m 21,3 km/h (4 Bft)
20.08.2014 06:22 8,3 C 7,8 C 94 % 1015,3 hPa 0,0 l/m 0 min 0 min 0,0 UV-I 0 W/m 17,7 km/h (3 Bft)
20.08.2014 06:24 8,3 C 7,8 C 94 % 1015,3 hPa 0,0 l/m 0 min 0 min 0,0 UV-I 0 W/m 21,3 km/h (4 Bft)
20.08.2014 06:26 8,3 C 7,8 C 94 % 1015,2 hPa 0,0 l/m 0 min 0 min 0,0 UV-I 0 W/m 17,7 km/h (3 Bft)
20.08.2014 06:28 8,3 C 7,8 C 94 % 1015,3 hPa 0,0 l/m 0 min 0 min 0,0 UV-I 0 W/m 14,2 km/h (3 Bft)
20.08.2014 06:30 8,3 C 7,8 C 94 % 1015,3 hPa 0,0 l/m 0 min 0 min 0,0 UV-I 0 W/m 14,2 km/h (3 Bft)
20.08.2014 06:32 8,3 C 7,8 C 94 % 1015,3 hPa 0,0 l/m 0 min 0 min 0,0 UV-I 0 W/m 17,7 km/h (3 Bft)
20.08.2014 06:34 8,3 C 7,8 C 94 % 1015,3 hPa 0,0 l/m 0 min 0 min 0,0 UV-I 8 W/m 17,7 km/h (3 Bft)
20.08.2014 06:36 8,3 C 7,8 C 94 % 1015,4 hPa 0,0 l/m 0 min 0 min 0,0 UV-I 9 W/m 17,7 km/h (3 Bft)
20.08.2014 06:38 8,3 C 7,8 C 94 % 1015,3 hPa 0,0 l/m 0 min 0 min 0,0 UV-I 11 W/m 14,2 km/h (3 Bft)
20.08.2014 06:40 8,3 C 7,8 C 94 % 1015,3 hPa 0,0 l/m 0 min 0 min 0,0 UV-I 11 W/m 21,3 km/h (4 Bft)
20.08.2014 06:42 8,3 C 7,8 C 94 % 1015,3 hPa 0,0 l/m 0 min 0 min 0,0 UV-I 12 W/m 14,2 km/h (3 Bft)
20.08.2014 06:44 8,3 C 7,8 C 94 % 1015,4 hPa 0,0 l/m 2 min 0 min 0,0 UV-I 14 W/m 17,7 km/h (3 Bft)
20.08.2014 06:46 8,3 C 7,8 C 94 % 1015,4 hPa 0,0 l/m 2 min 0 min 0,0 UV-I 16 W/m 14,2 km/h (3 Bft)
20.08.2014 06:48 8,3 C 7,8 C 94 % 1015,4 hPa 0,0 l/m 0 min 0 min 0,0 UV-I 16 W/m 17,7 km/h (3 Bft)
20.08.2014 06:50 8,3 C 7,8 C 94 % 1015,4 hPa 0,0 l/m 2 min 0 min 0,0 UV-I 21 W/m 17,7 km/h (3 Bft)
20.08.2014 06:52 8,3 C 7,8 C 94 % 1015,3 hPa 0,0 l/m 0 min 0 min 0,0 UV-I 23 W/m 21,3 km/h (4 Bft)
20.08.2014 06:54 8,3 C 7,8 C 94 % 1015,3 hPa 0,0 l/m 0 min 0 min 0,0 UV-I 21 W/m 21,3 km/h (4 Bft)
20.08.2014 06:56 8,3 C 7,8 C 94 % 1015,3 hPa 0,0 l/m 0 min 0 min 0,0 UV-I 21 W/m 28,2 km/h (4 Bft)
20.08.2014 06:58 8,3 C 7,8 C 94 % 1015,4 hPa 0,0 l/m 0 min 0 min 0,0 UV-I 23 W/m 28,2 km/h (4 Bft)
20.08.2014 07:00 8,3 C 7,8 C 94 % 1015,3 hPa 0,0 l/m 0 min 0 min 0,0 UV-I 26 W/m 21,3 km/h (4 Bft)
20.08.2014 07:02 8,3 C 7,8 C 94 % 1015,4 hPa 0,0 l/m 2 min 0 min 0,0 UV-I 43 W/m 21,3 km/h (4 Bft)
20.08.2014 07:04 8,3 C 7,8 C 94 % 1015,4 hPa 0,0 l/m 2 min 0 min 0,0 UV-I 54 W/m 24,7 km/h (4 Bft)
20.08.2014 07:06 8,3 C 7,8 C 94 % 1015,4 hPa 0,0 l/m 2 min 0 min 0,0 UV-I 58 W/m 24,7 km/h (4 Bft)
20.08.2014 07:08 8,3 C 7,8 C 94 % 1015,4 hPa 0,0 l/m 2 min 0 min 0,0 UV-I 64 W/m 21,3 km/h (4 Bft)
20.08.2014 07:10 8,3 C 7,8 C 94 % 1015,4 hPa 0,0 l/m 2 min 0 min 0,0 UV-I 69 W/m 17,7 km/h (3 Bft)
20.08.2014 07:12 8,3 C 7,8 C 94 % 1015,4 hPa 0,0 l/m 2 min 0 min 0,0 UV-I 74 W/m 21,3 km/h (4 Bft)
20.08.2014 07:14 8,3 C 7,8 C 94 % 1015,4 hPa 0,0 l/m 2 min 0 min 0,0 UV-I 80 W/m 21,3 km/h (4 Bft)
20.08.2014 07:16 8,3 C 7,8 C 94 % 1015,4 hPa 0,0 l/m 2 min 0 min 0,0 UV-I 85 W/m 31,7 km/h (5 Bft)
20.08.2014 07:18 8,3 C 7,8 C 94 % 1015,4 hPa 0,0 l/m 2 min 0 min 0,0 UV-I 91 W/m 28,2 km/h (4 Bft)
20.08.2014 07:20 8,4 C 7,8 C 94 % 1015,4 hPa 0,0 l/m 2 min 0 min 0,0 UV-I 96 W/m 21,3 km/h (4 Bft)
20.08.2014 07:22 8,4 C 7,8 C 94 % 1015,4 hPa 0,0 l/m 2 min 0 min 0,0 UV-I 102 W/m 28,2 km/h (4 Bft)
20.08.2014 07:24 8,4 C 7,8 C 94 % 1015,4 hPa 0,0 l/m 2 min 0 min 0,0 UV-I 108 W/m 24,7 km/h (4 Bft)
20.08.2014 07:26 8,4 C 7,8 C 94 % 1015,4 hPa 0,0 l/m 2 min 0 min 0,0 UV-I 114 W/m 28,2 km/h (4 Bft)
20.08.2014 07:28 8,5 C 8,3 C 94 % 1015,4 hPa 0,0 l/m 2 min 0 min 0,0 UV-I 120 W/m 24,7 km/h (4 Bft)
20.08.2014 07:30 8,6 C 8,3 C 94 % 1015,4 hPa 0,0 l/m 2 min 0 min 0,0 UV-I 125 W/m 21,3 km/h (4 Bft)
20.08.2014 07:32 8,6 C 8,3 C 94 % 1015,4 hPa 0,0 l/m 2 min 0 min 0,0 UV-I 130 W/m 24,7 km/h (4 Bft)
20.08.2014 07:34 8,7 C 8,3 C 94 % 1015,4 hPa 0,0 l/m 2 min 0 min 0,0 UV-I 137 W/m 24,7 km/h (4 Bft)
20.08.2014 07:36 8,7 C 8,3 C 94 % 1015,4 hPa 0,0 l/m 2 min 0 min 0,0 UV-I 141 W/m 21,3 km/h (4 Bft)
20.08.2014 07:38 8,8 C 8,3 C 94 % 1015,4 hPa 0,0 l/m 2 min 0 min 0,0 UV-I 146 W/m 21,3 km/h (4 Bft)
20.08.2014 07:40 8,8 C 8,3 C 94 % 1015,4 hPa 0,0 l/m 2 min 0 min 0,0 UV-I 153 W/m 24,7 km/h (4 Bft)
20.08.2014 07:42 8,9 C 8,3 C 94 % 1015,4 hPa 0,0 l/m 2 min 0 min 0,0 UV-I 156 W/m 28,2 km/h (4 Bft)
20.08.2014 07:44 8,9 C 8,3 C 94 % 1015,5 hPa 0,0 l/m 2 min 0 min 0,0 UV-I 161 W/m 28,2 km/h (4 Bft)
20.08.2014 07:46 8,9 C 8,3 C 94 % 1015,5 hPa 0,0 l/m 2 min 0 min 0,0 UV-I 167 W/m 21,3 km/h (4 Bft)
20.08.2014 07:48 9,0 C 8,3 C 94 % 1015,5 hPa 0,0 l/m 2 min 0 min 0,0 UV-I 171 W/m 24,7 km/h (4 Bft)
20.08.2014 07:50 9,1 C 8,3 C 94 % 1015,5 hPa 0,0 l/m 2 min 0 min 0,0 UV-I 175 W/m 24,7 km/h (4 Bft)
20.08.2014 07:52 9,1 C 8,3 C 94 % 1015,5 hPa 0,0 l/m 2 min 0 min 0,0 UV-I 181 W/m 24,7 km/h (4 Bft)
20.08.2014 07:54 9,2 C 8,9 C 94 % 1015,5 hPa 0,0 l/m 2 min 0 min 0,0 UV-I 186 W/m 24,7 km/h (4 Bft)
20.08.2014 07:56 9,2 C 8,9 C 93 % 1015,5 hPa 0,0 l/m 2 min 0 min 0,0 UV-I 191 W/m 14,2 km/h (3 Bft)
20.08.2014 07:58 9,3 C 8,9 C 93 % 1015,5 hPa 0,0 l/m 2 min 0 min 0,0 UV-I 197 W/m 14,2 km/h (3 Bft)
20.08.2014 08:00 9,3 C 8,9 C 93 % 1015,5 hPa 0,0 l/m 2 min 0 min 0,0 UV-I 202 W/m 10,7 km/h (2 Bft)
20.08.2014 08:02 9,4 C 8,9 C 93 % 1015,5 hPa 0,0 l/m 2 min 0 min 0,0 UV-I 208 W/m 21,3 km/h (4 Bft)
20.08.2014 08:04 9,4 C 8,9 C 93 % 1015,6 hPa 0,0 l/m 2 min 0 min 0,0 UV-I 213 W/m 21,3 km/h (4 Bft)
20.08.2014 08:06 9,4 C 8,9 C 93 % 1015,5 hPa 0,0 l/m 2 min 0 min 0,0 UV-I 218 W/m 28,2 km/h (4 Bft)
20.08.2014 08:08 9,5 C 8,9 C 93 % 1015,6 hPa 0,0 l/m 2 min 0 min 0,0 UV-I 222 W/m 17,7 km/h (3 Bft)
20.08.2014 08:10 9,6 C 8,9 C 93 % 1015,6 hPa 0,0 l/m 2 min 0 min 0,0 UV-I 229 W/m 24,7 km/h (4 Bft)
20.08.2014 08:12 9,6 C 8,9 C 93 % 1015,7 hPa 0,0 l/m 2 min 0 min 0,0 UV-I 234 W/m 21,3 km/h (4 Bft)
20.08.2014 08:14 9,7 C 8,9 C 93 % 1015,6 hPa 0,0 l/m 2 min 0 min 0,0 UV-I 238 W/m 14,2 km/h (3 Bft)
20.08.2014 08:16 9,8 C 8,9 C 93 % 1015,7 hPa 0,0 l/m 2 min 0 min 0,0 UV-I 244 W/m 10,7 km/h (2 Bft)
20.08.2014 08:18 9,8 C 8,9 C 92 % 1015,7 hPa 0,0 l/m 2 min 0 min 0,0 UV-I 248 W/m 10,7 km/h (2 Bft)
20.08.2014 08:20 9,9 C 8,9 C 92 % 1015,7 hPa 0,0 l/m 2 min 0 min 0,0 UV-I 254 W/m 21,3 km/h (4 Bft)
20.08.2014 08:22 9,9 C 9,4 C 92 % 1015,7 hPa 0,0 l/m 2 min 0 min 0,0 UV-I 259 W/m 31,7 km/h (5 Bft)
20.08.2014 08:24 10,0 C 9,4 C 92 % 1015,7 hPa 0,0 l/m 2 min 0 min 0,0 UV-I 265 W/m 28,2 km/h (4 Bft)
20.08.2014 08:26 10,1 C 9,4 C 92 % 1015,7 hPa 0,0 l/m 2 min 0 min 0,0 UV-I 269 W/m 21,3 km/h (4 Bft)
20.08.2014 08:28 10,1 C 9,4 C 92 % 1015,7 hPa 0,0 l/m 2 min 0 min 0,0 UV-I 275 W/m 14,2 km/h (3 Bft)
20.08.2014 08:30 10,2 C 9,4 C 92 % 1015,7 hPa 0,0 l/m 2 min 0 min 0,0 UV-I 280 W/m 10,7 km/h (2 Bft)
20.08.2014 08:32 10,2 C 9,4 C 92 % 1015,8 hPa 0,0 l/m 2 min 0 min 0,0 UV-I 285 W/m 3,5 km/h (1 Bft)
20.08.2014 08:34 10,3 C 9,4 C 92 % 1015,8 hPa 0,0 l/m 2 min 0 min 0,0 UV-I 290 W/m 10,7 km/h (2 Bft)
20.08.2014 08:36 10,4 C 9,4 C 91 % 1015,8 hPa 0,0 l/m 2 min 0 min 0,0 UV-I 295 W/m 21,3 km/h (4 Bft)
20.08.2014 08:38 10,5 C 9,4 C 91 % 1015,8 hPa 0,0 l/m 2 min 0 min 0,0 UV-I 300 W/m 10,7 km/h (2 Bft)
20.08.2014 08:40 10,6 C 9,4 C 91 % 1015,8 hPa 0,0 l/m 2 min 0 min 0,0 UV-I 305 W/m 21,3 km/h (4 Bft)
20.08.2014 08:42 10,7 C 9,4 C 91 % 1015,8 hPa 0,0 l/m 2 min 0 min 0,0 UV-I 310 W/m 3,5 km/h (1 Bft)
20.08.2014 08:44 10,8 C 9,4 C 91 % 1015,8 hPa 0,0 l/m 2 min 0 min 0,0 UV-I 315 W/m 17,7 km/h (3 Bft)
20.08.2014 08:46 10,8 C 10,0 C 91 % 1015,8 hPa 0,0 l/m 2 min 0 min 0,0 UV-I 321 W/m 14,2 km/h (3 Bft)
20.08.2014 08:48 10,9 C 10,0 C 90 % 1015,8 hPa 0,0 l/m 2 min 0 min 0,0 UV-I 326 W/m 14,2 km/h (3 Bft)
20.08.2014 08:50 10,9 C 10,0 C 90 % 1015,9 hPa 0,0 l/m 2 min 0 min 0,0 UV-I 330 W/m 10,7 km/h (2 Bft)
20.08.2014 08:52 11,1 C 10,0 C 90 % 1015,9 hPa 0,0 l/m 2 min 0 min 0,0 UV-I 336 W/m 7,1 km/h (2 Bft)
20.08.2014 08:54 11,1 C 10,0 C 90 % 1015,9 hPa 0,0 l/m 2 min 0 min 0,0 UV-I 340 W/m 14,2 km/h (3 Bft)
20.08.2014 08:56 11,2 C 10,0 C 90 % 1015,9 hPa 0,0 l/m 2 min 0 min 0,0 UV-I 345 W/m 14,2 km/h (3 Bft)
20.08.2014 08:58 11,3 C 10,0 C 90 % 1015,9 hPa 0,0 l/m 2 min 0 min 0,0 UV-I 351 W/m 21,3 km/h (4 Bft)
20.08.2014 09:00 11,3 C 10,0 C 90 % 1015,9 hPa 0,0 l/m 2 min 0 min 0,0 UV-I 356 W/m 17,7 km/h (3 Bft)
20.08.2014 09:02 11,4 C 10,0 C 89 % 1015,8 hPa 0,0 l/m 2 min 0 min 0,0 UV-I 360 W/m 21,3 km/h (4 Bft)
20.08.2014 09:04 11,4 C 10,0 C 89 % 1015,8 hPa 0,0 l/m 2 min 0 min 0,0 UV-I 364 W/m 24,7 km/h (4 Bft)
20.08.2014 09:06 11,6 C 10,6 C 88 % 1015,8 hPa 0,0 l/m 2 min 0 min 0,0 UV-I 370 W/m 24,7 km/h (4 Bft)
20.08.2014 09:08 11,7 C 10,6 C 88 % 1015,8 hPa 0,0 l/m 2 min 0 min 0,0 UV-I 374 W/m 14,2 km/h (3 Bft)
20.08.2014 09:10 11,8 C 10,6 C 88 % 1016,0 hPa 0,0 l/m 2 min 0 min 0,0 UV-I 380 W/m 14,2 km/h (3 Bft)
20.08.2014 09:12 11,9 C 10,6 C 88 % 1016,0 hPa 0,0 l/m 2 min 0 min 0,4 UV-I 385 W/m 21,3 km/h (4 Bft)
20.08.2014 09:14 11,9 C 10,6 C 88 % 1015,9 hPa 0,0 l/m 2 min 0 min 0,5 UV-I 390 W/m 17,7 km/h (3 Bft)
20.08.2014 09:16 11,9 C 10,6 C 87 % 1015,9 hPa 0,0 l/m 2 min 0 min 0,5 UV-I 396 W/m 24,7 km/h (4 Bft)
20.08.2014 09:18 12,1 C 10,6 C 87 % 1015,9 hPa 0,0 l/m 2 min 0 min 0,5 UV-I 401 W/m 24,7 km/h (4 Bft)
20.08.2014 09:20 12,2 C 10,6 C 87 % 1016,0 hPa 0,0 l/m 2 min 0 min 0,6 UV-I 405 W/m 24,7 km/h (4 Bft)
20.08.2014 09:22 12,3 C 10,6 C 86 % 1015,9 hPa 0,0 l/m 2 min 0 min 0,6 UV-I 410 W/m 21,3 km/h (4 Bft)
20.08.2014 09:24 12,4 C 10,6 C 86 % 1016,0 hPa 0,0 l/m 2 min 0 min 0,6 UV-I 415 W/m 17,7 km/h (3 Bft)
20.08.2014 09:26 12,5 C 11,1 C 86 % 1016,0 hPa 0,0 l/m 2 min 0 min 0,7 UV-I 419 W/m 21,3 km/h (4 Bft)
20.08.2014 09:28 12,7 C 11,1 C 85 % 1016,0 hPa 0,0 l/m 2 min 0 min 0,7 UV-I 424 W/m 17,7 km/h (3 Bft)
20.08.2014 09:30 12,8 C 11,1 C 86 % 1016,0 hPa 0,0 l/m 2 min 0 min 0,7 UV-I 428 W/m 24,7 km/h (4 Bft)
20.08.2014 09:32 12,9 C 11,1 C 85 % 1016,0 hPa 0,0 l/m 2 min 0 min 0,8 UV-I 434 W/m 24,7 km/h (4 Bft)
20.08.2014 09:34 13,0 C 11,1 C 84 % 1016,0 hPa 0,0 l/m 2 min 0 min 0,8 UV-I 439 W/m 17,7 km/h (3 Bft)
20.08.2014 09:36 13,1 C 11,1 C 85 % 1016,0 hPa 0,0 l/m 2 min 0 min 0,8 UV-I 444 W/m 24,7 km/h (4 Bft)
20.08.2014 09:38 13,1 C 11,1 C 84 % 1016,1 hPa 0,0 l/m 2 min 0 min 0,9 UV-I 448 W/m 21,3 km/h (4 Bft)
20.08.2014 09:40 13,3 C 11,7 C 84 % 1016,0 hPa 0,0 l/m 2 min 0 min 0,9 UV-I 452 W/m 21,3 km/h (4 Bft)
20.08.2014 09:42 13,3 C 11,7 C 83 % 1016,0 hPa 0,0 l/m 2 min 0 min 0,9 UV-I 457 W/m 24,7 km/h (4 Bft)
20.08.2014 09:44 13,4 C 11,7 C 82 % 1016,0 hPa 0,0 l/m 2 min 0 min 0,9 UV-I 462 W/m 21,3 km/h (4 Bft)
20.08.2014 09:46 13,5 C 12,2 C 83 % 1016,1 hPa 0,0 l/m 2 min 0 min 1,0 UV-I 466 W/m 24,7 km/h (4 Bft)
20.08.2014 09:48 13,7 C 13,3 C 83 % 1016,1 hPa 0,0 l/m 2 min 0 min 1,0 UV-I 472 W/m 17,7 km/h (3 Bft)
20.08.2014 09:50 13,8 C 15,0 C 82 % 1016,1 hPa 0,0 l/m 2 min 0 min 1,0 UV-I 475 W/m 24,7 km/h (4 Bft)
20.08.2014 09:52 13,9 C 16,1 C 82 % 1016,2 hPa 0,0 l/m 2 min 0 min 1,1 UV-I 479 W/m 21,3 km/h (4 Bft)
20.08.2014 09:54 14,1 C 16,7 C 81 % 1016,2 hPa 0,0 l/m 2 min 0 min 1,1 UV-I 486 W/m 14,2 km/h (3 Bft)
20.08.2014 09:56 14,2 C 16,7 C 81 % 1016,1 hPa 0,0 l/m 2 min 0 min 1,1 UV-I 490 W/m 21,3 km/h (4 Bft)
20.08.2014 09:58 14,2 C 17,2 C 81 % 1016,2 hPa 0,0 l/m 2 min 0 min 1,2 UV-I 495 W/m 21,3 km/h (4 Bft)
20.08.2014 10:00 14,2 C 17,2 C 80 % 1016,2 hPa 0,0 l/m 2 min 0 min 1,2 UV-I 498 W/m 24,7 km/h (4 Bft)
20.08.2014 10:02 14,2 C 16,1 C 79 % 1016,2 hPa 0,0 l/m 2 min 0 min 1,2 UV-I 503 W/m 21,3 km/h (4 Bft)
20.08.2014 10:04 14,3 C 15,6 C 80 % 1016,2 hPa 0,0 l/m 2 min 0 min 1,3 UV-I 507 W/m 14,2 km/h (3 Bft)
20.08.2014 10:06 14,5 C 15,6 C 80 % 1016,1 hPa 0,0 l/m 2 min 0 min 1,3 UV-I 512 W/m 24,7 km/h (4 Bft)
20.08.2014 10:08 14,7 C 15,0 C 79 % 1016,2 hPa 0,0 l/m 2 min 0 min 1,3 UV-I 516 W/m 21,3 km/h (4 Bft)
20.08.2014 10:10 14,8 C 15,0 C 79 % 1016,2 hPa 0,0 l/m 2 min 0 min 1,4 UV-I 520 W/m 21,3 km/h (4 Bft)
20.08.2014 10:12 14,8 C 13,9 C 79 % 1016,2 hPa 0,0 l/m 2 min 0 min 1,4 UV-I 526 W/m 17,7 km/h (3 Bft)
20.08.2014 10:14 14,8 C 13,9 C 78 % 1016,1 hPa 0,0 l/m 2 min 0 min 1,4 UV-I 528 W/m 21,3 km/h (4 Bft)
20.08.2014 10:16 14,8 C 13,9 C 78 % 1016,2 hPa 0,0 l/m 2 min 0 min 1,5 UV-I 532 W/m 21,3 km/h (4 Bft)
20.08.2014 10:18 14,9 C 13,9 C 78 % 1016,2 hPa 0,0 l/m 2 min 0 min 1,5 UV-I 536 W/m 21,3 km/h (4 Bft)
20.08.2014 10:20 15,1 C 13,9 C 78 % 1016,2 hPa 0,0 l/m 2 min 0 min 1,5 UV-I 540 W/m 21,3 km/h (4 Bft)
20.08.2014 10:22 15,1 C 13,9 C 77 % 1016,2 hPa 0,0 l/m 2 min 0 min 1,5 UV-I 542 W/m 14,2 km/h (3 Bft)
20.08.2014 10:24 15,2 C 13,9 C 77 % 1016,2 hPa 0,0 l/m 2 min 0 min 1,6 UV-I 548 W/m 17,7 km/h (3 Bft)
20.08.2014 10:26 15,3 C 13,9 C 78 % 1016,2 hPa 0,0 l/m 2 min 0 min 1,6 UV-I 551 W/m 10,7 km/h (2 Bft)
20.08.2014 10:28 15,5 C 13,9 C 77 % 1016,2 hPa 0,0 l/m 2 min 0 min 1,7 UV-I 555 W/m 21,3 km/h (4 Bft)
20.08.2014 10:30 15,6 C 13,9 C 77 % 1016,1 hPa 0,0 l/m 2 min 0 min 1,7 UV-I 558 W/m 28,2 km/h (4 Bft)
20.08.2014 10:32 15,6 C 13,9 C 76 % 1016,2 hPa 0,0 l/m 2 min 0 min 1,8 UV-I 563 W/m 21,3 km/h (4 Bft)
20.08.2014 10:34 15,7 C 14,4 C 76 % 1016,2 hPa 0,0 l/m 2 min 0 min 1,8 UV-I 565 W/m 21,3 km/h (4 Bft)
20.08.2014 10:36 15,7 C 14,4 C 76 % 1016,2 hPa 0,0 l/m 2 min 0 min 1,8 UV-I 569 W/m 28,2 km/h (4 Bft)
20.08.2014 10:38 15,8 C 14,4 C 76 % 1016,2 hPa 0,0 l/m 2 min 0 min 1,9 UV-I 574 W/m 21,3 km/h (4 Bft)
20.08.2014 10:40 15,8 C 14,4 C 75 % 1016,2 hPa 0,0 l/m 2 min 0 min 1,9 UV-I 578 W/m 24,7 km/h (4 Bft)
20.08.2014 10:42 15,8 C 14,4 C 75 % 1016,2 hPa 0,0 l/m 2 min 0 min 2,0 UV-I 584 W/m 17,7 km/h (3 Bft)
20.08.2014 10:44 15,9 C 15,0 C 76 % 1016,2 hPa 0,0 l/m 2 min 0 min 2,0 UV-I 586 W/m 21,3 km/h (4 Bft)
20.08.2014 10:46 16,0 C 15,0 C 75 % 1016,2 hPa 0,0 l/m 2 min 0 min 2,0 UV-I 589 W/m 21,3 km/h (4 Bft)
20.08.2014 10:48 16,1 C 15,0 C 75 % 1016,2 hPa 0,0 l/m 2 min 0 min 2,1 UV-I 593 W/m 10,7 km/h (2 Bft)
20.08.2014 10:50 16,0 C 15,0 C 74 % 1016,1 hPa 0,0 l/m 2 min 0 min 2,1 UV-I 597 W/m 24,7 km/h (4 Bft)
20.08.2014 10:52 16,0 C 15,0 C 74 % 1016,1 hPa 0,0 l/m 2 min 0 min 2,1 UV-I 601 W/m 21,3 km/h (4 Bft)
20.08.2014 10:54 16,1 C 15,0 C 75 % 1016,1 hPa 0,0 l/m 2 min 0 min 2,2 UV-I 604 W/m 24,7 km/h (4 Bft)
20.08.2014 10:56 16,2 C 15,0 C 75 % 1016,1 hPa 0,0 l/m 2 min 0 min 2,2 UV-I 606 W/m 24,7 km/h (4 Bft)
20.08.2014 10:58 16,3 C 15,0 C 74 % 1016,1 hPa 0,0 l/m 2 min 0 min 2,2 UV-I 609 W/m 14,2 km/h (3 Bft)
20.08.2014 11:00 16,4 C 15,0 C 74 % 1016,1 hPa 0,0 l/m 2 min 0 min 2,2 UV-I 606 W/m 28,2 km/h (4 Bft)
20.08.2014 11:02 16,3 C 15,0 C 74 % 1016,1 hPa 0,0 l/m 2 min 0 min 1,9 UV-I 594 W/m 24,7 km/h (4 Bft)
20.08.2014 11:04 16,3 C 15,0 C 74 % 1016,1 hPa 0,0 l/m 2 min 0 min 2,2 UV-I 615 W/m 21,3 km/h (4 Bft)
20.08.2014 11:06 16,4 C 15,6 C 74 % 1016,1 hPa 0,0 l/m 2 min 0 min 2,4 UV-I 623 W/m 14,2 km/h (3 Bft)
20.08.2014 11:08 16,3 C 15,6 C 73 % 1016,1 hPa 0,0 l/m 2 min 0 min 2,4 UV-I 626 W/m 31,7 km/h (5 Bft)
20.08.2014 11:10 16,3 C 15,6 C 72 % 1016,1 hPa 0,0 l/m 2 min 0 min 2,4 UV-I 629 W/m 28,2 km/h (4 Bft)
20.08.2014 11:12 16,4 C 15,6 C 73 % 1016,1 hPa 0,0 l/m 2 min 0 min 2,4 UV-I 639 W/m 24,7 km/h (4 Bft)
20.08.2014 11:14 16,4 C 15,6 C 74 % 1016,1 hPa 0,0 l/m 2 min 0 min 2,5 UV-I 638 W/m 35,4 km/h (5 Bft)
20.08.2014 11:16 16,4 C 15,6 C 72 % 1016,1 hPa 0,0 l/m 2 min 0 min 2,5 UV-I 636 W/m 21,3 km/h (4 Bft)
20.08.2014 11:18 16,5 C 15,6 C 72 % 1016,1 hPa 0,0 l/m 2 min 0 min 2,5 UV-I 639 W/m 17,7 km/h (3 Bft)
20.08.2014 11:20 16,7 C 15,6 C 72 % 1016,1 hPa 0,0 l/m 2 min 0 min 2,6 UV-I 648 W/m 28,2 km/h (4 Bft)
20.08.2014 11:22 16,8 C 15,6 C 73 % 1016,1 hPa 0,0 l/m 2 min 0 min 2,6 UV-I 655 W/m 17,7 km/h (3 Bft)
20.08.2014 11:24 17,1 C 16,1 C 72 % 1016,1 hPa 0,0 l/m 2 min 0 min 2,6 UV-I 651 W/m 17,7 km/h (3 Bft)
20.08.2014 11:26 17,2 C 16,1 C 70 % 1016,1 hPa 0,0 l/m 2 min 0 min 2,6 UV-I 655 W/m 28,2 km/h (4 Bft)
20.08.2014 11:28 17,2 C 16,1 C 71 % 1016,1 hPa 0,0 l/m 2 min 0 min 2,7 UV-I 664 W/m 28,2 km/h (4 Bft)
20.08.2014 11:30 17,2 C 16,1 C 69 % 1016,1 hPa 0,0 l/m 2 min 0 min 2,8 UV-I 669 W/m 28,2 km/h (4 Bft)
20.08.2014 11:32 17,1 C 16,1 C 69 % 1016,1 hPa 0,0 l/m 2 min 0 min 2,8 UV-I 668 W/m 21,3 km/h (4 Bft)
20.08.2014 11:34 17,1 C 16,1 C 70 % 1016,1 hPa 0,0 l/m 2 min 0 min 2,8 UV-I 672 W/m 24,7 km/h (4 Bft)
20.08.2014 11:36 17,2 C 16,1 C 71 % 1016,1 hPa 0,0 l/m 2 min 0 min 2,8 UV-I 675 W/m 42,4 km/h (6 Bft)
20.08.2014 11:38 17,3 C 16,1 C 71 % 1016,1 hPa 0,0 l/m 2 min 0 min 2,8 UV-I 682 W/m 17,7 km/h (3 Bft)
20.08.2014 11:40 17,6 C 16,7 C 72 % 1016,1 hPa 0,0 l/m 2 min 0 min 2,9 UV-I 700 W/m 24,7 km/h (4 Bft)
20.08.2014 11:42 17,6 C 16,7 C 71 % 1016,1 hPa 0,0 l/m 2 min 0 min 3,0 UV-I 710 W/m 17,7 km/h (3 Bft)
20.08.2014 11:44 17,6 C 16,7 C 71 % 1016,1 hPa 0,0 l/m 2 min 0 min 3,0 UV-I 729 W/m 17,7 km/h (3 Bft)
20.08.2014 11:46 17,7 C 16,7 C 68 % 1016,1 hPa 0,0 l/m 2 min 0 min 2,8 UV-I 729 W/m 21,3 km/h (4 Bft)
20.08.2014 11:48 17,8 C 16,7 C 69 % 1016,1 hPa 0,0 l/m 2 min 0 min 3,1 UV-I 727 W/m 21,3 km/h (4 Bft)
20.08.2014 11:50 17,5 C 16,7 C 64 % 1016,1 hPa 0,0 l/m 2 min 0 min 3,1 UV-I 729 W/m 17,7 km/h (3 Bft)
20.08.2014 11:52 17,4 C 16,7 C 65 % 1016,1 hPa 0,0 l/m 2 min 0 min 3,1 UV-I 728 W/m 10,7 km/h (2 Bft)
20.08.2014 11:54 17,4 C 16,7 C 68 % 1016,1 hPa 0,0 l/m 2 min 0 min 2,1 UV-I 729 W/m 24,7 km/h (4 Bft)
20.08.2014 11:56 17,2 C 16,1 C 68 % 1016,1 hPa 0,0 l/m 0 min 0 min 1,4 UV-I 150 W/m 35,4 km/h (5 Bft)
20.08.2014 11:58 16,8 C 15,6 C 67 % 1016,1 hPa 0,0 l/m 0 min 0 min 1,6 UV-I 107 W/m 24,7 km/h (4 Bft)
20.08.2014 12:00 16,6 C 15,6 C 69 % 1016,0 hPa 0,0 l/m 0 min 0 min 3,2 UV-I 337 W/m 24,7 km/h (4 Bft)
20.08.2014 12:02 16,8 C 16,1 C 70 % 1016,0 hPa 0,0 l/m 2 min 0 min 3,2 UV-I 668 W/m 14,2 km/h (3 Bft)
20.08.2014 12:06 17,7 C 16,7 C 68 % 1016,1 hPa 0,0 l/m 2 min 0 min 3,1 UV-I 729 W/m 17,7 km/h (3 Bft)
20.08.2014 12:08 17,6 C 16,1 C 65 % 1015,9 hPa 0,0 l/m 2 min 0 min 1,9 UV-I 699 W/m 31,7 km/h (5 Bft)
20.08.2014 12:10 17,2 C 16,1 C 66 % 1016,0 hPa 0,0 l/m 0 min 0 min 1,7 UV-I 120 W/m 21,3 km/h (4 Bft)
20.08.2014 12:12 16,8 C 15,6 C 67 % 1016,1 hPa 0,0 l/m 0 min 0 min 2,1 UV-I 132 W/m 21,3 km/h (4 Bft)
20.08.2014 12:14 16,4 C 15,6 C 67 % 1016,1 hPa 0,0 l/m 0 min 0 min 2,3 UV-I 134 W/m 14,2 km/h (3 Bft)
20.08.2014 12:16 16,6 C 16,1 C 68 % 1016,0 hPa 0,0 l/m 0 min 0 min 3,3 UV-I 154 W/m 10,7 km/h (2 Bft)
20.08.2014 12:18 16,8 C 16,7 C 68 % 1016,0 hPa 0,0 l/m 0 min 0 min 3,4 UV-I 218 W/m 17,7 km/h (3 Bft)
20.08.2014 12:20 17,1 C 16,7 C 67 % 1016,0 hPa 0,0 l/m 2 min 0 min 3,3 UV-I 517 W/m 35,4 km/h (5 Bft)
20.08.2014 12:22 17,4 C 17,2 C 66 % 1015,9 hPa 0,0 l/m 2 min 0 min 2,8 UV-I 793 W/m 35,4 km/h (5 Bft)
20.08.2014 12:24 17,9 C 17,2 C 69 % 1016,0 hPa 0,0 l/m 2 min 0 min 2,2 UV-I 806 W/m 17,7 km/h (3 Bft)
20.08.2014 12:26 17,9 C 16,7 C 65 % 1016,0 hPa 0,0 l/m 0 min 0 min 1,6 UV-I 198 W/m 17,7 km/h (3 Bft)
20.08.2014 12:28 17,4 C 16,7 C 64 % 1016,0 hPa 0,0 l/m 0 min 0 min 1,8 UV-I 201 W/m 21,3 km/h (4 Bft)
20.08.2014 12:30 17,3 C 17,2 C 65 % 1015,9 hPa 0,0 l/m 2 min 0 min 3,0 UV-I 464 W/m 10,7 km/h (2 Bft)
20.08.2014 12:32 17,6 C 17,8 C 66 % 1015,9 hPa 0,0 l/m 2 min 0 min 3,3 UV-I 837 W/m 24,7 km/h (4 Bft)
20.08.2014 12:34 17,7 C 17,2 C 63 % 1015,9 hPa 0,0 l/m 2 min 0 min 1,4 UV-I 388 W/m 24,7 km/h (4 Bft)
20.08.2014 12:36 17,4 C 16,7 C 63 % 1015,9 hPa 0,0 l/m 0 min 0 min 1,4 UV-I 199 W/m 31,7 km/h (5 Bft)
20.08.2014 12:38 17,2 C 16,7 C 65 % 1015,8 hPa 0,0 l/m 0 min 0 min 1,4 UV-I 198 W/m 17,7 km/h (3 Bft)
20.08.2014 12:40 16,9 C 16,1 C 67 % 1015,9 hPa 0,0 l/m 0 min 0 min 1,4 UV-I 199 W/m 21,3 km/h (4 Bft)
20.08.2014 12:42 16,8 C 16,1 C 66 % 1015,8 hPa 0,0 l/m 0 min 0 min 1,4 UV-I 215 W/m 17,7 km/h (3 Bft)
20.08.2014 12:44 16,7 C 16,1 C 68 % 1015,8 hPa 0,0 l/m 0 min 0 min 1,6 UV-I 233 W/m 17,7 km/h (3 Bft)
20.08.2014 12:46 16,6 C 15,6 C 68 % 1015,9 hPa 0,0 l/m 0 min 0 min 1,6 UV-I 207 W/m 24,7 km/h (4 Bft)
20.08.2014 12:48 16,5 C 15,6 C 68 % 1015,9 hPa 0,0 l/m 0 min 0 min 1,5 UV-I 186 W/m 21,3 km/h (4 Bft)
20.08.2014 12:50 16,4 C 15,6 C 67 % 1015,8 hPa 0,0 l/m 0 min 0 min 1,5 UV-I 180 W/m 14,2 km/h (3 Bft)
20.08.2014 12:52 16,4 C 15,6 C 69 % 1015,9 hPa 0,0 l/m 0 min 0 min 1,5 UV-I 189 W/m 14,2 km/h (3 Bft)
20.08.2014 12:54 16,4 C 15,6 C 69 % 1015,9 hPa 0,0 l/m 0 min 0 min 1,5 UV-I 178 W/m 7,1 km/h (2 Bft)
20.08.2014 12:56 16,4 C 15,6 C 69 % 1015,9 hPa 0,0 l/m 0 min 0 min 1,5 UV-I 170 W/m 24,7 km/h (4 Bft)
20.08.2014 12:58 16,3 C 15,0 C 65 % 1015,8 hPa 0,0 l/m 0 min 0 min 1,5 UV-I 185 W/m 24,7 km/h (4 Bft)
20.08.2014 13:00 16,2 C 15,0 C 66 % 1015,9 hPa 0,0 l/m 0 min 0 min 1,4 UV-I 151 W/m 24,7 km/h (4 Bft)
20.08.2014 13:02 16,2 C 15,0 C 66 % 1015,9 hPa 0,0 l/m 0 min 0 min 1,3 UV-I 139 W/m 17,7 km/h (3 Bft)
20.08.2014 13:04 16,1 C 15,0 C 68 % 1015,9 hPa 0,0 l/m 0 min 0 min 1,4 UV-I 136 W/m 14,2 km/h (3 Bft)
20.08.2014 13:06 16,0 C 15,0 C 67 % 1015,8 hPa 0,0 l/m 0 min 0 min 1,5 UV-I 150 W/m 17,7 km/h (3 Bft)
20.08.2014 13:08 15,9 C 15,0 C 69 % 1015,9 hPa 0,0 l/m 0 min 0 min 1,6 UV-I 156 W/m 17,7 km/h (3 Bft)
20.08.2014 13:10 16,0 C 15,0 C 70 % 1015,9 hPa 0,0 l/m 0 min 0 min 1,7 UV-I 154 W/m 17,7 km/h (3 Bft)
20.08.2014 13:12 16,0 C 15,0 C 70 % 1015,9 hPa 0,0 l/m 0 min 0 min 1,6 UV-I 158 W/m 0,0 km/h (0 Bft)
20.08.2014 13:14 16,0 C 15,0 C 71 % 1015,8 hPa 0,0 l/m 0 min 0 min 1,6 UV-I 148 W/m 10,7 km/h (2 Bft)
20.08.2014 13:16 16,1 C 15,0 C 72 % 1015,8 hPa 0,0 l/m 0 min 0 min 2,1 UV-I 144 W/m 3,5 km/h (1 Bft)
20.08.2014 13:18 16,4 C 16,1 C 69 % 1015,8 hPa 0,0 l/m 2 min 0 min 3,6 UV-I 727 W/m 17,7 km/h (3 Bft)
20.08.2014 13:20 16,9 C 16,7 C 70 % 1015,7 hPa 0,0 l/m 2 min 0 min 3,8 UV-I 778 W/m 10,7 km/h (2 Bft)
20.08.2014 13:22 17,4 C 16,7 C 66 % 1015,7 hPa 0,0 l/m 2 min 0 min 3,7 UV-I 769 W/m 28,2 km/h (4 Bft)
20.08.2014 13:24 17,9 C 17,2 C 63 % 1015,7 hPa 0,0 l/m 2 min 0 min 3,7 UV-I 762 W/m 21,3 km/h (4 Bft)
20.08.2014 13:26 17,9 C 17,2 C 63 % 1015,7 hPa 0,0 l/m 2 min 0 min 3,6 UV-I 748 W/m 31,7 km/h (5 Bft)
20.08.2014 13:28 18,2 C 17,8 C 60 % 1015,7 hPa 0,0 l/m 2 min 0 min 3,6 UV-I 753 W/m 28,2 km/h (4 Bft)
20.08.2014 13:30 18,3 C 17,8 C 61 % 1015,6 hPa 0,0 l/m 2 min 0 min 3,6 UV-I 769 W/m 24,7 km/h (4 Bft)
20.08.2014 13:32 18,4 C 17,8 C 63 % 1015,7 hPa 0,0 l/m 2 min 0 min 3,7 UV-I 775 W/m 38,9 km/h (6 Bft)
20.08.2014 13:34 18,6 C 17,8 C 62 % 1015,7 hPa 0,0 l/m 2 min 0 min 3,6 UV-I 755 W/m 24,7 km/h (4 Bft)
20.08.2014 13:36 18,8 C 17,8 C 63 % 1015,7 hPa 0,0 l/m 2 min 0 min 3,5 UV-I 731 W/m 17,7 km/h (3 Bft)
20.08.2014 13:38 18,8 C 17,8 C 61 % 1015,6 hPa 0,0 l/m 2 min 0 min 3,6 UV-I 739 W/m 24,7 km/h (4 Bft)
20.08.2014 13:40 18,9 C 17,8 C 63 % 1015,6 hPa 0,0 l/m 2 min 0 min 3,6 UV-I 767 W/m 17,7 km/h (3 Bft)
20.08.2014 13:42 19,1 C 18,3 C 63 % 1015,6 hPa 0,0 l/m 2 min 0 min 3,6 UV-I 756 W/m 31,7 km/h (5 Bft)
20.08.2014 13:44 19,1 C 18,3 C 62 % 1015,6 hPa 0,0 l/m 2 min 0 min 3,6 UV-I 773 W/m 21,3 km/h (4 Bft)
20.08.2014 13:46 19,1 C 18,3 C 60 % 1015,7 hPa 0,0 l/m 2 min 0 min 3,6 UV-I 780 W/m 24,7 km/h (4 Bft)
20.08.2014 13:48 18,9 C 18,3 C 61 % 1015,6 hPa 0,0 l/m 2 min 0 min 2,8 UV-I 714 W/m 24,7 km/h (4 Bft)
20.08.2014 13:50 18,6 C 17,8 C 60 % 1015,6 hPa 0,0 l/m 0 min 0 min 2,3 UV-I 162 W/m 28,2 km/h (4 Bft)
20.08.2014 13:52 18,3 C 17,2 C 62 % 1015,6 hPa 0,0 l/m 0 min 0 min 2,2 UV-I 165 W/m 42,4 km/h (6 Bft)
20.08.2014 13:54 18,2 C 17,2 C 61 % 1015,6 hPa 0,0 l/m 0 min 0 min 2,6 UV-I 246 W/m 35,4 km/h (5 Bft)
20.08.2014 13:56 18,1 C 17,2 C 60 % 1015,6 hPa 0,0 l/m 2 min 0 min 3,4 UV-I 733 W/m 24,7 km/h (4 Bft)
20.08.2014 13:58 18,3 C 17,2 C 64 % 1015,6 hPa 0,0 l/m 2 min 0 min 3,0 UV-I 510 W/m 21,3 km/h (4 Bft)
20.08.2014 14:00 18,4 C 17,2 C 62 % 1015,6 hPa 0,0 l/m 0 min 0 min 1,8 UV-I 195 W/m 21,3 km/h (4 Bft)
20.08.2014 14:02 18,2 C 16,7 C 61 % 1015,6 hPa 0,0 l/m 0 min 0 min 1,5 UV-I 195 W/m 24,7 km/h (4 Bft)
20.08.2014 14:04 17,8 C 16,7 C 62 % 1015,6 hPa 0,0 l/m 0 min 0 min 1,5 UV-I 213 W/m 28,2 km/h (4 Bft)
20.08.2014 14:06 17,9 C 17,2 C 63 % 1015,6 hPa 0,0 l/m 0 min 0 min 3,2 UV-I 317 W/m 31,7 km/h (5 Bft)
20.08.2014 14:08 18,3 C 17,8 C 64 % 1015,6 hPa 0,0 l/m 2 min 0 min 3,2 UV-I 870 W/m 17,7 km/h (3 Bft)
20.08.2014 14:10 18,4 C 17,8 C 56 % 1015,6 hPa 0,0 l/m 2 min 0 min 2,0 UV-I 852 W/m 35,4 km/h (5 Bft)
20.08.2014 14:12 18,3 C 17,2 C 57 % 1015,6 hPa 0,0 l/m 0 min 0 min 1,6 UV-I 202 W/m 42,4 km/h (6 Bft)
20.08.2014 14:14 18,1 C 16,7 C 60 % 1015,5 hPa 0,0 l/m 0 min 0 min 1,4 UV-I 180 W/m 17,7 km/h (3 Bft)
20.08.2014 14:16 17,8 C 16,7 C 59 % 1015,5 hPa 0,0 l/m 0 min 0 min 1,4 UV-I 177 W/m 24,7 km/h (4 Bft)
20.08.2014 14:18 17,6 C 16,7 C 61 % 1015,5 hPa 0,0 l/m 0 min 0 min 1,4 UV-I 190 W/m 21,3 km/h (4 Bft)
20.08.2014 14:20 17,4 C 16,7 C 61 % 1015,6 hPa 0,0 l/m 0 min 0 min 1,5 UV-I 228 W/m 21,3 km/h (4 Bft)
20.08.2014 14:22 17,3 C 16,1 C 61 % 1015,5 hPa 0,0 l/m 0 min 0 min 1,5 UV-I 220 W/m 24,7 km/h (4 Bft)
20.08.2014 14:24 17,3 C 16,1 C 64 % 1015,5 hPa 0,0 l/m 0 min 0 min 1,5 UV-I 200 W/m 24,7 km/h (4 Bft)
20.08.2014 14:26 17,2 C 16,1 C 65 % 1015,5 hPa 0,0 l/m 0 min 0 min 1,4 UV-I 188 W/m 21,3 km/h (4 Bft)
20.08.2014 14:28 17,2 C 16,1 C 62 % 1015,5 hPa 0,0 l/m 0 min 0 min 1,4 UV-I 187 W/m 17,7 km/h (3 Bft)
20.08.2014 14:30 17,1 C 16,1 C 64 % 1015,5 hPa 0,0 l/m 0 min 0 min 1,3 UV-I 173 W/m 10,7 km/h (2 Bft)
20.08.2014 14:32 17,0 C 16,1 C 63 % 1015,5 hPa 0,0 l/m 0 min 0 min 1,2 UV-I 159 W/m 10,7 km/h (2 Bft)
20.08.2014 14:34 17,0 C 16,1 C 65 % 1015,5 hPa 0,0 l/m 0 min 0 min 1,2 UV-I 160 W/m 17,7 km/h (3 Bft)
20.08.2014 14:36 17,0 C 16,1 C 63 % 1015,5 hPa 0,0 l/m 0 min 0 min 1,4 UV-I 191 W/m 17,7 km/h (3 Bft)
20.08.2014 14:38 17,1 C 16,1 C 66 % 1015,5 hPa 0,0 l/m 0 min 0 min 2,0 UV-I 225 W/m 10,7 km/h (2 Bft)
20.08.2014 14:40 17,3 C 16,7 C 66 % 1015,5 hPa 0,0 l/m 0 min 0 min 1,8 UV-I 262 W/m 7,1 km/h (2 Bft)
20.08.2014 14:42 17,4 C 16,7 C 65 % 1015,5 hPa 0,0 l/m 2 min 0 min 2,8 UV-I 375 W/m 14,2 km/h (3 Bft)
20.08.2014 14:44 17,9 C 17,2 C 65 % 1015,5 hPa 0,0 l/m 2 min 0 min 3,1 UV-I 746 W/m 17,7 km/h (3 Bft)
20.08.2014 14:46 18,3 C 17,2 C 66 % 1015,4 hPa 0,0 l/m 2 min 0 min 3,1 UV-I 746 W/m 21,3 km/h (4 Bft)
20.08.2014 14:48 18,3 C 17,8 C 61 % 1015,4 hPa 0,0 l/m 2 min 0 min 3,1 UV-I 751 W/m 21,3 km/h (4 Bft)
20.08.2014 14:50 18,3 C 17,8 C 62 % 1015,4 hPa 0,0 l/m 2 min 0 min 3,1 UV-I 744 W/m 17,7 km/h (3 Bft)
20.08.2014 14:52 18,6 C 17,8 C 62 % 1015,4 hPa 0,0 l/m 2 min 0 min 3,0 UV-I 748 W/m 14,2 km/h (3 Bft)
20.08.2014 14:54 18,8 C 18,3 C 60 % 1015,4 hPa 0,0 l/m 2 min 0 min 3,1 UV-I 759 W/m 17,7 km/h (3 Bft)
20.08.2014 14:56 19,1 C 18,3 C 63 % 1015,4 hPa 0,0 l/m 2 min 0 min 3,1 UV-I 759 W/m 17,7 km/h (3 Bft)
20.08.2014 14:58 19,1 C 18,3 C 61 % 1015,4 hPa 0,0 l/m 2 min 0 min 3,1 UV-I 755 W/m 24,7 km/h (4 Bft)
20.08.2014 15:00 19,2 C 18,3 C 59 % 1015,4 hPa 0,0 l/m 2 min 0 min 3,1 UV-I 756 W/m 31,7 km/h (5 Bft)
20.08.2014 15:02 19,4 C 18,9 C 59 % 1015,4 hPa 0,0 l/m 2 min 0 min 3,2 UV-I 761 W/m 24,7 km/h (4 Bft)
20.08.2014 15:04 19,7 C 18,9 C 58 % 1015,4 hPa 0,0 l/m 2 min 0 min 3,1 UV-I 734 W/m 38,9 km/h (6 Bft)
20.08.2014 15:06 19,4 C 18,3 C 56 % 1015,4 hPa 0,0 l/m 2 min 0 min 3,1 UV-I 723 W/m 28,2 km/h (4 Bft)
20.08.2014 15:08 19,5 C 18,3 C 57 % 1015,4 hPa 0,0 l/m 2 min 0 min 3,1 UV-I 717 W/m 31,7 km/h (5 Bft)
20.08.2014 15:10 19,7 C 18,9 C 57 % 1015,3 hPa 0,0 l/m 2 min 0 min 3,0 UV-I 693 W/m 35,4 km/h (5 Bft)
20.08.2014 15:12 19,4 C 18,3 C 55 % 1015,4 hPa 0,0 l/m 2 min 0 min 2,9 UV-I 665 W/m 24,7 km/h (4 Bft)
20.08.2014 15:14 19,3 C 18,3 C 57 % 1015,4 hPa 0,0 l/m 2 min 0 min 2,8 UV-I 676 W/m 17,7 km/h (3 Bft)
20.08.2014 15:16 19,1 C 18,3 C 57 % 1015,3 hPa 0,0 l/m 2 min 0 min 2,6 UV-I 674 W/m 10,7 km/h (2 Bft)
20.08.2014 15:18 19,1 C 18,3 C 57 % 1015,4 hPa 0,0 l/m 2 min 0 min 2,8 UV-I 665 W/m 21,3 km/h (4 Bft)
20.08.2014 15:20 19,2 C 18,3 C 58 % 1015,4 hPa 0,0 l/m 2 min 0 min 2,7 UV-I 658 W/m 28,2 km/h (4 Bft)
20.08.2014 15:22 19,2 C 18,3 C 60 % 1015,3 hPa 0,0 l/m 2 min 0 min 2,7 UV-I 650 W/m 21,3 km/h (4 Bft)
20.08.2014 15:24 19,4 C 18,3 C 57 % 1015,3 hPa 0,0 l/m 2 min 0 min 2,7 UV-I 644 W/m 17,7 km/h (3 Bft)
20.08.2014 15:26 19,5 C 18,3 C 59 % 1015,3 hPa 0,0 l/m 2 min 0 min 2,7 UV-I 646 W/m 21,3 km/h (4 Bft)
20.08.2014 15:28 19,7 C 18,9 C 61 % 1015,3 hPa 0,0 l/m 2 min 0 min 2,7 UV-I 652 W/m 7,1 km/h (2 Bft)
20.08.2014 15:30 19,8 C 18,9 C 60 % 1015,3 hPa 0,0 l/m 2 min 0 min 2,6 UV-I 648 W/m 21,3 km/h (4 Bft)
20.08.2014 15:32 20,1 C 18,9 C 59 % 1015,2 hPa 0,0 l/m 2 min 0 min 2,6 UV-I 646 W/m 28,2 km/h (4 Bft)
20.08.2014 15:34 20,1 C 18,9 C 62 % 1015,2 hPa 0,0 l/m 2 min 0 min 2,6 UV-I 639 W/m 24,7 km/h (4 Bft)
20.08.2014 15:36 19,9 C 18,9 C 56 % 1015,3 hPa 0,0 l/m 2 min 0 min 2,4 UV-I 633 W/m 21,3 km/h (4 Bft)
20.08.2014 15:38 19,8 C 18,9 C 58 % 1015,2 hPa 0,0 l/m 2 min 0 min 2,2 UV-I 598 W/m 24,7 km/h (4 Bft)
20.08.2014 15:40 19,9 C 18,9 C 57 % 1015,2 hPa 0,0 l/m 2 min 0 min 2,4 UV-I 619 W/m 31,7 km/h (5 Bft)
20.08.2014 15:42 19,6 C 18,9 C 58 % 1015,1 hPa 0,0 l/m 2 min 0 min 2,4 UV-I 643 W/m 21,3 km/h (4 Bft)
20.08.2014 15:44 19,7 C 18,9 C 60 % 1015,1 hPa 0,0 l/m 2 min 0 min 2,4 UV-I 643 W/m 28,2 km/h (4 Bft)
20.08.2014 15:46 19,7 C 18,9 C 57 % 1015,2 hPa 0,0 l/m 2 min 0 min 2,4 UV-I 507 W/m 28,2 km/h (4 Bft)
20.08.2014 15:48 19,7 C 18,9 C 58 % 1015,2 hPa 0,0 l/m 2 min 0 min 2,4 UV-I 633 W/m 31,7 km/h (5 Bft)
20.08.2014 15:50 19,8 C 18,9 C 58 % 1015,2 hPa 0,0 l/m 2 min 0 min 2,3 UV-I 626 W/m 28,2 km/h (4 Bft)
20.08.2014 15:52 19,8 C 18,9 C 57 % 1015,2 hPa 0,0 l/m 2 min 0 min 2,3 UV-I 608 W/m 24,7 km/h (4 Bft)
20.08.2014 15:54 19,8 C 18,9 C 57 % 1015,2 hPa 0,0 l/m 2 min 0 min 2,3 UV-I 607 W/m 28,2 km/h (4 Bft)
20.08.2014 15:56 19,7 C 18,9 C 57 % 1015,2 hPa 0,0 l/m 2 min 0 min 2,2 UV-I 600 W/m 21,3 km/h (4 Bft)
20.08.2014 15:58 19,6 C 18,9 C 57 % 1015,1 hPa 0,0 l/m 2 min 0 min 2,2 UV-I 600 W/m 38,9 km/h (6 Bft)
20.08.2014 16:00 19,6 C 18,9 C 56 % 1015,1 hPa 0,0 l/m 2 min 0 min 2,1 UV-I 601 W/m 28,2 km/h (4 Bft)
20.08.2014 16:02 19,6 C 18,9 C 54 % 1015,1 hPa 0,0 l/m 2 min 0 min 2,1 UV-I 603 W/m 21,3 km/h (4 Bft)
20.08.2014 16:04 19,6 C 18,9 C 55 % 1015,0 hPa 0,0 l/m 2 min 0 min 2,0 UV-I 598 W/m 35,4 km/h (5 Bft)
20.08.2014 16:06 19,7 C 18,9 C 58 % 1015,0 hPa 0,0 l/m 2 min 0 min 2,0 UV-I 611 W/m 24,7 km/h (4 Bft)
20.08.2014 16:08 19,8 C 18,9 C 56 % 1015,0 hPa 0,0 l/m 2 min 0 min 2,0 UV-I 615 W/m 21,3 km/h (4 Bft)
20.08.2014 16:10 19,8 C 18,9 C 57 % 1015,0 hPa 0,0 l/m 2 min 0 min 2,0 UV-I 610 W/m 24,7 km/h (4 Bft)
20.08.2014 16:12 20,2 C 19,4 C 57 % 1015,0 hPa 0,0 l/m 2 min 0 min 2,0 UV-I 602 W/m 38,9 km/h (6 Bft)
20.08.2014 16:14 20,2 C 19,4 C 56 % 1015,0 hPa 0,0 l/m 2 min 0 min 2,0 UV-I 597 W/m 38,9 km/h (6 Bft)
20.08.2014 16:16 20,2 C 19,4 C 58 % 1015,0 hPa 0,0 l/m 2 min 0 min 1,9 UV-I 601 W/m 35,4 km/h (5 Bft)
20.08.2014 16:18 20,3 C 19,4 C 54 % 1015,0 hPa 0,0 l/m 2 min 0 min 1,9 UV-I 601 W/m 31,7 km/h (5 Bft)
20.08.2014 16:20 19,9 C 20,0 C 58 % 1015,0 hPa 0,0 l/m 2 min 0 min 1,9 UV-I 597 W/m 35,4 km/h (5 Bft)
20.08.2014 16:22 20,0 C 20,6 C 56 % 1015,0 hPa 0,0 l/m 2 min 0 min 1,8 UV-I 589 W/m 35,4 km/h (5 Bft)
20.08.2014 16:24 20,1 C 21,7 C 57 % 1014,9 hPa 0,0 l/m 2 min 0 min 1,8 UV-I 583 W/m 14,2 km/h (3 Bft)
20.08.2014 16:26 20,2 C 21,7 C 56 % 1014,9 hPa 0,0 l/m 2 min 0 min 1,7 UV-I 573 W/m 28,2 km/h (4 Bft)
20.08.2014 16:28 20,1 C 21,1 C 54 % 1014,8 hPa 0,0 l/m 2 min 0 min 1,6 UV-I 557 W/m 35,4 km/h (5 Bft)
20.08.2014 16:30 19,9 C 20,0 C 55 % 1014,8 hPa 0,0 l/m 2 min 0 min 1,1 UV-I 384 W/m 21,3 km/h (4 Bft)
20.08.2014 16:32 19,7 C 19,4 C 56 % 1014,9 hPa 0,0 l/m 0 min 0 min 1,2 UV-I 154 W/m 21,3 km/h (4 Bft)
20.08.2014 16:34 19,6 C 20,6 C 57 % 1014,8 hPa 0,0 l/m 2 min 0 min 1,5 UV-I 431 W/m 24,7 km/h (4 Bft)
20.08.2014 16:36 19,6 C 21,1 C 59 % 1014,9 hPa 0,0 l/m 2 min 0 min 1,5 UV-I 568 W/m 21,3 km/h (4 Bft)
20.08.2014 16:38 19,6 C 21,1 C 56 % 1014,9 hPa 0,0 l/m 2 min 0 min 1,5 UV-I 572 W/m 31,7 km/h (5 Bft)
20.08.2014 16:40 19,7 C 20,6 C 59 % 1014,8 hPa 0,0 l/m 2 min 0 min 1,5 UV-I 565 W/m 24,7 km/h (4 Bft)
20.08.2014 16:42 19,8 C 20,0 C 59 % 1014,8 hPa 0,0 l/m 2 min 0 min 1,5 UV-I 564 W/m 28,2 km/h (4 Bft)
20.08.2014 16:44 19,7 C 18,9 C 56 % 1014,8 hPa 0,0 l/m 2 min 0 min 1,1 UV-I 561 W/m 31,7 km/h (5 Bft)
20.08.2014 16:46 19,5 C 18,9 C 59 % 1014,9 hPa 0,0 l/m 2 min 0 min 1,3 UV-I 561 W/m 28,2 km/h (4 Bft)
20.08.2014 16:48 19,6 C 18,9 C 59 % 1014,8 hPa 0,0 l/m 2 min 0 min 1,4 UV-I 531 W/m 21,3 km/h (4 Bft)
20.08.2014 16:50 19,7 C 18,3 C 58 % 1014,8 hPa 0,0 l/m 2 min 0 min 1,3 UV-I 518 W/m 28,2 km/h (4 Bft)
20.08.2014 16:52 19,7 C 18,3 C 59 % 1014,7 hPa 0,0 l/m 2 min 0 min 1,2 UV-I 511 W/m 28,2 km/h (4 Bft)
20.08.2014 16:54 19,7 C 18,3 C 58 % 1014,8 hPa 0,0 l/m 2 min 0 min 1,0 UV-I 508 W/m 24,7 km/h (4 Bft)
20.08.2014 16:56 19,6 C 17,8 C 58 % 1014,7 hPa 0,0 l/m 2 min 0 min 0,8 UV-I 298 W/m 17,7 km/h (3 Bft)
20.08.2014 16:58 19,2 C 17,8 C 60 % 1014,7 hPa 0,0 l/m 0 min 0 min 0,9 UV-I 187 W/m 14,2 km/h (3 Bft)
20.08.2014 17:00 19,2 C 17,8 C 60 % 1014,6 hPa 0,0 l/m 2 min 0 min 0,8 UV-I 305 W/m 24,7 km/h (4 Bft)
20.08.2014 17:02 19,2 C 17,8 C 59 % 1014,7 hPa 0,0 l/m 2 min 0 min 0,8 UV-I 403 W/m 24,7 km/h (4 Bft)
20.08.2014 17:04 19,0 C 17,8 C 59 % 1014,6 hPa 0,0 l/m 0 min 0 min 0,6 UV-I 197 W/m 17,7 km/h (3 Bft)
20.08.2014 17:06 18,7 C 17,2 C 58 % 1014,6 hPa 0,0 l/m 0 min 0 min 0,6 UV-I 166 W/m 21,3 km/h (4 Bft)
20.08.2014 17:08 18,5 C 17,2 C 60 % 1014,7 hPa 0,0 l/m 0 min 0 min 0,5 UV-I 150 W/m 21,3 km/h (4 Bft)
20.08.2014 17:10 18,3 C 17,2 C 61 % 1014,6 hPa 0,0 l/m 0 min 0 min 0,5 UV-I 148 W/m 24,7 km/h (4 Bft)
20.08.2014 17:12 18,2 C 16,7 C 62 % 1014,8 hPa 0,0 l/m 0 min 0 min 0,5 UV-I 157 W/m 14,2 km/h (3 Bft)
20.08.2014 17:14 18,2 C 17,2 C 62 % 1014,7 hPa 0,0 l/m 0 min 0 min 0,5 UV-I 167 W/m 10,7 km/h (2 Bft)
20.08.2014 17:16 18,2 C 17,2 C 63 % 1014,8 hPa 0,0 l/m 0 min 0 min 0,5 UV-I 175 W/m 14,2 km/h (3 Bft)
20.08.2014 17:18 18,1 C 17,2 C 65 % 1014,8 hPa 0,0 l/m 0 min 0 min 0,5 UV-I 175 W/m 10,7 km/h (2 Bft)
20.08.2014 17:20 18,1 C 17,2 C 64 % 1014,7 hPa 0,0 l/m 0 min 0 min 0,2 UV-I 169 W/m 7,1 km/h (2 Bft)
20.08.2014 17:22 18,1 C 17,2 C 63 % 1014,8 hPa 0,0 l/m 0 min 0 min 0,0 UV-I 161 W/m 7,1 km/h (2 Bft)
20.08.2014 17:24 18,1 C 17,2 C 63 % 1014,7 hPa 0,0 l/m 0 min 0 min 0,0 UV-I 156 W/m 17,7 km/h (3 Bft)
20.08.2014 17:26 18,1 C 16,7 C 63 % 1014,8 hPa 0,0 l/m 0 min 0 min 0,0 UV-I 155 W/m 21,3 km/h (4 Bft)
20.08.2014 17:28 18,1 C 16,7 C 63 % 1014,7 hPa 0,0 l/m 0 min 0 min 0,0 UV-I 156 W/m 14,2 km/h (3 Bft)
20.08.2014 17:30 18,1 C 16,7 C 64 % 1014,7 hPa 0,0 l/m 0 min 0 min 0,0 UV-I 157 W/m 17,7 km/h (3 Bft)
20.08.2014 17:32 18,0 C 16,7 C 64 % 1014,7 hPa 0,0 l/m 0 min 0 min 0,0 UV-I 160 W/m 10,7 km/h (2 Bft)
20.08.2014 17:34 17,9 C 16,7 C 64 % 1014,8 hPa 0,0 l/m 0 min 0 min 0,0 UV-I 160 W/m 10,7 km/h (2 Bft)
20.08.2014 17:36 17,9 C 16,7 C 64 % 1014,8 hPa 0,0 l/m 0 min 0 min 0,0 UV-I 164 W/m 10,7 km/h (2 Bft)
20.08.2014 17:38 17,9 C 16,7 C 64 % 1014,7 hPa 0,0 l/m 0 min 0 min 0,0 UV-I 186 W/m 0,0 km/h (0 Bft)
20.08.2014 17:40 18,1 C 16,7 C 64 % 1014,7 hPa 0,0 l/m 0 min 0 min 0,0 UV-I 198 W/m 14,2 km/h (3 Bft)
20.08.2014 17:42 18,2 C 17,2 C 64 % 1014,7 hPa 0,0 l/m 2 min 0 min 0,0 UV-I 233 W/m 10,7 km/h (2 Bft)
20.08.2014 17:44 18,3 C 17,2 C 62 % 1014,7 hPa 0,0 l/m 2 min 0 min 0,0 UV-I 227 W/m 10,7 km/h (2 Bft)
20.08.2014 17:46 18,3 C 17,2 C 61 % 1014,7 hPa 0,0 l/m 0 min 0 min 0,0 UV-I 219 W/m 24,7 km/h (4 Bft)
20.08.2014 17:48 18,3 C 17,2 C 60 % 1014,8 hPa 0,0 l/m 0 min 0 min 0,0 UV-I 176 W/m 42,4 km/h (6 Bft)
20.08.2014 17:50 17,8 C 16,7 C 62 % 1014,8 hPa 0,0 l/m 0 min 0 min 0,0 UV-I 152 W/m 49,5 km/h (6 Bft)
20.08.2014 17:52 17,3 C 16,1 C 65 % 1014,8 hPa 0,0 l/m 0 min 0 min 0,0 UV-I 151 W/m 38,9 km/h (6 Bft)
20.08.2014 17:54 16,9 C 15,6 C 67 % 1014,9 hPa 0,0 l/m 0 min 0 min 0,0 UV-I 143 W/m 38,9 km/h (6 Bft)
20.08.2014 17:56 16,7 C 15,6 C 67 % 1014,8 hPa 0,0 l/m 0 min 0 min 0,0 UV-I 105 W/m 42,4 km/h (6 Bft)
20.08.2014 17:58 16,5 C 15,6 C 68 % 1014,8 hPa 0,0 l/m 0 min 0 min 0,0 UV-I 82 W/m 49,5 km/h (6 Bft)
20.08.2014 18:00 16,3 C 15,0 C 68 % 1014,9 hPa 0,0 l/m 0 min 0 min 0,0 UV-I 67 W/m 49,5 km/h (6 Bft)
20.08.2014 18:02 16,1 C 15,0 C 68 % 1014,9 hPa 0,0 l/m 0 min 0 min 0,0 UV-I 57 W/m 49,5 km/h (6 Bft)
20.08.2014 18:06 15,7 C 14,4 C 70 % 1014,9 hPa 0,0 l/m 0 min 0 min 0,0 UV-I 47 W/m 46,0 km/h (6 Bft)
20.08.2014 18:08 15,6 C 14,4 C 70 % 1014,9 hPa 0,0 l/m 0 min 0 min 0,0 UV-I 35 W/m 38,9 km/h (6 Bft)
20.08.2014 18:10 15,5 C 14,4 C 71 % 1014,9 hPa 0,0 l/m 0 min 0 min 0,0 UV-I 26 W/m 35,4 km/h (5 Bft)
20.08.2014 18:12 15,4 C 14,4 C 71 % 1014,9 hPa 0,0 l/m 0 min 0 min 0,0 UV-I 22 W/m 46,0 km/h (6 Bft)
20.08.2014 18:14 15,3 C 13,9 C 71 % 1014,9 hPa 0,0 l/m 0 min 0 min 0,0 UV-I 19 W/m 42,4 km/h (6 Bft)
20.08.2014 18:16 15,2 C 13,9 C 72 % 1015,3 hPa 0,0 l/m 0 min 0 min 0,0 UV-I 15 W/m 31,7 km/h (5 Bft)
20.08.2014 18:18 15,2 C 12,8 C 75 % 1015,7 hPa 0,0 l/m 0 min 2 min 0,0 UV-I 11 W/m 42,4 km/h (6 Bft)
20.08.2014 18:20 15,1 C 11,7 C 78 % 1015,9 hPa 0,4 l/m 0 min 2 min 0,0 UV-I 9 W/m 35,4 km/h (5 Bft)
20.08.2014 18:22 14,7 C 11,7 C 81 % 1015,9 hPa 0,8 l/m 0 min 2 min 0,0 UV-I 7 W/m 42,4 km/h (6 Bft)
20.08.2014 18:24 14,2 C 11,7 C 83 % 1016,1 hPa 1,0 l/m 0 min 2 min 0,0 UV-I 5 W/m 35,4 km/h (5 Bft)
20.08.2014 18:26 13,9 C 11,1 C 85 % 1016,1 hPa 0,6 l/m 0 min 2 min 0,0 UV-I 5 W/m 35,4 km/h (5 Bft)
20.08.2014 18:28 13,4 C 10,6 C 85 % 1016,1 hPa 0,8 l/m 0 min 2 min 0,0 UV-I 6 W/m 42,4 km/h (6 Bft)
20.08.2014 18:30 12,9 C 10,6 C 86 % 1016,1 hPa 0,8 l/m 0 min 2 min 0,0 UV-I 7 W/m 24,7 km/h (4 Bft)
20.08.2014 18:32 12,5 C 10,0 C 87 % 1016,1 hPa 0,4 l/m 0 min 2 min 0,0 UV-I 7 W/m 21,3 km/h (4 Bft)
20.08.2014 18:34 12,2 C 10,0 C 88 % 1015,9 hPa 0,8 l/m 0 min 2 min 0,0 UV-I 7 W/m 14,2 km/h (3 Bft)
20.08.2014 18:36 11,9 C 10,0 C 89 % 1015,9 hPa 0,0 l/m 0 min 2 min 0,0 UV-I 7 W/m 24,7 km/h (4 Bft)
20.08.2014 18:38 11,8 C 10,0 C 90 % 1015,9 hPa 0,2 l/m 0 min 2 min 0,0 UV-I 9 W/m 31,7 km/h (5 Bft)
20.08.2014 18:40 11,8 C 10,0 C 90 % 1015,8 hPa 0,0 l/m 0 min 2 min 0,0 UV-I 9 W/m 21,3 km/h (4 Bft)
20.08.2014 18:42 11,8 C 10,0 C 91 % 1015,8 hPa 0,2 l/m 0 min 2 min 0,0 UV-I 9 W/m 24,7 km/h (4 Bft)
20.08.2014 18:44 11,8 C 10,0 C 92 % 1015,8 hPa 0,0 l/m 0 min 2 min 0,0 UV-I 11 W/m 31,7 km/h (5 Bft)
20.08.2014 18:46 11,7 C 10,0 C 92 % 1015,7 hPa 0,0 l/m 0 min 2 min 0,0 UV-I 11 W/m 31,7 km/h (5 Bft)
20.08.2014 18:48 11,7 C 10,6 C 92 % 1015,7 hPa 0,0 l/m 0 min 2 min 0,0 UV-I 11 W/m 21,3 km/h (4 Bft)
20.08.2014 18:50 11,7 C 10,0 C 92 % 1015,7 hPa 0,0 l/m 0 min 2 min 0,0 UV-I 12 W/m 24,7 km/h (4 Bft)
20.08.2014 18:52 11,6 C 10,0 C 93 % 1015,7 hPa 0,2 l/m 0 min 2 min 0,0 UV-I 12 W/m 21,3 km/h (4 Bft)
20.08.2014 18:54 11,6 C 10,0 C 93 % 1015,7 hPa 0,0 l/m 0 min 2 min 0,0 UV-I 12 W/m 21,3 km/h (4 Bft)
20.08.2014 18:56 11,6 C 10,0 C 93 % 1015,8 hPa 0,2 l/m 0 min 2 min 0,0 UV-I 14 W/m 28,2 km/h (4 Bft)
20.08.2014 18:58 11,5 C 10,0 C 93 % 1015,8 hPa 0,0 l/m 0 min 2 min 0,0 UV-I 15 W/m 17,7 km/h (3 Bft)
20.08.2014 19:00 11,4 C 10,0 C 93 % 1015,7 hPa 0,0 l/m 0 min 2 min 0,0 UV-I 16 W/m 21,3 km/h (4 Bft)
20.08.2014 19:02 11,4 C 10,0 C 93 % 1015,7 hPa 0,0 l/m 0 min 2 min 0,0 UV-I 18 W/m 21,3 km/h (4 Bft)
20.08.2014 19:04 11,4 C 10,0 C 93 % 1015,7 hPa 0,2 l/m 0 min 2 min 0,0 UV-I 19 W/m 24,7 km/h (4 Bft)
20.08.2014 19:06 11,4 C 10,0 C 94 % 1015,7 hPa 0,0 l/m 0 min 2 min 0,0 UV-I 21 W/m 17,7 km/h (3 Bft)
20.08.2014 19:08 11,4 C 10,0 C 94 % 1015,6 hPa 0,0 l/m 0 min 2 min 0,0 UV-I 25 W/m 7,1 km/h (2 Bft)
20.08.2014 19:10 11,4 C 10,0 C 94 % 1015,7 hPa 0,0 l/m 0 min 2 min 0,0 UV-I 26 W/m 3,5 km/h (1 Bft)
20.08.2014 19:12 11,4 C 10,0 C 94 % 1015,7 hPa 0,0 l/m 0 min 2 min 0,0 UV-I 29 W/m 10,7 km/h (2 Bft)
20.08.2014 19:14 11,4 C 10,0 C 94 % 1015,7 hPa 0,0 l/m 0 min 2 min 0,0 UV-I 32 W/m 0,0 km/h (0 Bft)
20.08.2014 19:16 11,4 C 10,0 C 94 % 1015,8 hPa 0,0 l/m 0 min 0 min 0,0 UV-I 33 W/m 0,0 km/h (0 Bft)
20.08.2014 19:18 11,4 C 10,0 C 94 % 1015,7 hPa 0,0 l/m 0 min 0 min 0,0 UV-I 35 W/m 0,0 km/h (0 Bft)
20.08.2014 19:20 11,5 C 10,6 C 94 % 1015,7 hPa 0,0 l/m 0 min 0 min 0,0 UV-I 39 W/m 0,0 km/h (0 Bft)
20.08.2014 19:22 11,5 C 10,6 C 95 % 1015,7 hPa 0,0 l/m 0 min 0 min 0,0 UV-I 41 W/m 0,0 km/h (0 Bft)
20.08.2014 19:24 11,5 C 10,6 C 95 % 1015,7 hPa 0,0 l/m 0 min 0 min 0,0 UV-I 45 W/m 0,0 km/h (0 Bft)
20.08.2014 19:26 11,6 C 10,6 C 95 % 1015,7 hPa 0,0 l/m 0 min 0 min 0,0 UV-I 46 W/m 0,0 km/h (0 Bft)
20.08.2014 19:28 11,5 C 10,6 C 95 % 1015,7 hPa 0,0 l/m 0 min 0 min 0,0 UV-I 47 W/m 0,0 km/h (0 Bft)
20.08.2014 19:30 11,5 C 10,6 C 95 % 1015,8 hPa 0,0 l/m 0 min 0 min 0,0 UV-I 49 W/m 0,0 km/h (0 Bft)
20.08.2014 19:32 11,4 C 10,6 C 95 % 1015,7 hPa 0,0 l/m 0 min 0 min 0,0 UV-I 51 W/m 0,0 km/h (0 Bft)
20.08.2014 19:34 11,5 C 10,6 C 95 % 1015,7 hPa 0,0 l/m 0 min 0 min 0,0 UV-I 51 W/m 0,0 km/h (0 Bft)
20.08.2014 19:36 11,6 C 10,6 C 95 % 1015,6 hPa 0,0 l/m 0 min 0 min 0,0 UV-I 51 W/m 0,0 km/h (0 Bft)
20.08.2014 19:38 11,6 C 10,6 C 95 % 1015,6 hPa 0,0 l/m 0 min 0 min 0,0 UV-I 51 W/m 0,0 km/h (0 Bft)
20.08.2014 19:40 11,7 C 10,6 C 95 % 1015,7 hPa 0,0 l/m 0 min 0 min 0,0 UV-I 50 W/m 0,0 km/h (0 Bft)
20.08.2014 19:42 11,7 C 10,6 C 95 % 1015,7 hPa 0,0 l/m 0 min 0 min 0,0 UV-I 48 W/m 0,0 km/h (0 Bft)
20.08.2014 19:44 11,7 C 10,6 C 95 % 1015,7 hPa 0,0 l/m 0 min 0 min 0,0 UV-I 46 W/m 0,0 km/h (0 Bft)
20.08.2014 19:46 11,7 C 10,6 C 95 % 1015,7 hPa 0,0 l/m 0 min 0 min 0,0 UV-I 44 W/m 0,0 km/h (0 Bft)
20.08.2014 19:48 11,6 C 10,6 C 95 % 1015,8 hPa 0,0 l/m 0 min 0 min 0,0 UV-I 43 W/m 0,0 km/h (0 Bft)
20.08.2014 19:50 11,6 C 10,6 C 95 % 1015,8 hPa 0,0 l/m 0 min 0 min 0,0 UV-I 40 W/m 0,0 km/h (0 Bft)
20.08.2014 19:52 11,7 C 10,6 C 95 % 1015,8 hPa 0,0 l/m 0 min 0 min 0,0 UV-I 39 W/m 0,0 km/h (0 Bft)
20.08.2014 19:54 11,6 C 10,6 C 95 % 1015,8 hPa 0,0 l/m 0 min 0 min 0,0 UV-I 38 W/m 0,0 km/h (0 Bft)
20.08.2014 19:56 11,6 C 10,6 C 95 % 1015,8 hPa 0,0 l/m 0 min 0 min 0,0 UV-I 36 W/m 0,0 km/h (0 Bft)
20.08.2014 19:58 11,5 C 10,6 C 95 % 1015,8 hPa 0,0 l/m 0 min 0 min 0,0 UV-I 35 W/m 0,0 km/h (0 Bft)
20.08.2014 20:00 11,4 C 10,6 C 95 % 1015,8 hPa 0,0 l/m 0 min 0 min 0,0 UV-I 33 W/m 0,0 km/h (0 Bft)
20.08.2014 20:02 11,4 C 10,6 C 95 % 1015,8 hPa 0,0 l/m 0 min 0 min 0,0 UV-I 32 W/m 0,0 km/h (0 Bft)
20.08.2014 20:04 11,4 C 10,6 C 95 % 1015,8 hPa 0,0 l/m 0 min 0 min 0,0 UV-I 32 W/m 0,0 km/h (0 Bft)
20.08.2014 20:06 11,3 C 10,6 C 95 % 1015,8 hPa 0,0 l/m 0 min 0 min 0,0 UV-I 30 W/m 0,0 km/h (0 Bft)
20.08.2014 20:08 11,3 C 10,6 C 96 % 1015,8 hPa 0,0 l/m 0 min 0 min 0,0 UV-I 29 W/m 0,0 km/h (0 Bft)
20.08.2014 20:10 11,4 C 10,6 C 96 % 1015,8 hPa 0,0 l/m 0 min 0 min 0,0 UV-I 26 W/m 0,0 km/h (0 Bft)
20.08.2014 20:12 11,4 C 10,6 C 96 % 1015,8 hPa 0,0 l/m 0 min 0 min 0,0 UV-I 24 W/m 0,0 km/h (0 Bft)
20.08.2014 20:14 11,4 C 10,6 C 96 % 1015,8 hPa 0,0 l/m 0 min 0 min 0,0 UV-I 21 W/m 0,0 km/h (0 Bft)
20.08.2014 20:16 11,4 C 10,6 C 96 % 1015,8 hPa 0,0 l/m 0 min 0 min 0,0 UV-I 19 W/m 0,0 km/h (0 Bft)
20.08.2014 20:18 11,3 C 10,6 C 96 % 1015,7 hPa 0,0 l/m 0 min 0 min 0,0 UV-I 16 W/m 0,0 km/h (0 Bft)
20.08.2014 20:20 11,3 C 10,6 C 96 % 1015,8 hPa 0,0 l/m 0 min 0 min 0,0 UV-I 14 W/m 0,0 km/h (0 Bft)
20.08.2014 20:22 11,3 C 10,0 C 96 % 1015,7 hPa 0,0 l/m 0 min 0 min 0,0 UV-I 12 W/m 0,0 km/h (0 Bft)
20.08.2014 20:24 11,3 C 10,0 C 96 % 1015,7 hPa 0,0 l/m 0 min 0 min 0,0 UV-I 12 W/m 0,0 km/h (0 Bft)
20.08.2014 20:26 11,3 C 10,0 C 96 % 1015,8 hPa 0,0 l/m 0 min 0 min 0,0 UV-I 12 W/m 0,0 km/h (0 Bft)
20.08.2014 20:28 11,3 C 10,0 C 96 % 1015,7 hPa 0,0 l/m 0 min 0 min 0,0 UV-I 11 W/m 0,0 km/h (0 Bft)
20.08.2014 20:30 11,3 C 10,0 C 96 % 1015,7 hPa 0,0 l/m 0 min 0 min 0,0 UV-I 11 W/m 0,0 km/h (0 Bft)
20.08.2014 20:32 11,3 C 10,0 C 96 % 1015,7 hPa 0,0 l/m 0 min 0 min 0,0 UV-I 11 W/m 0,0 km/h (0 Bft)
20.08.2014 20:34 11,3 C 10,0 C 96 % 1015,7 hPa 0,0 l/m 0 min 0 min 0,0 UV-I 9 W/m 0,0 km/h (0 Bft)
20.08.2014 20:36 11,3 C 10,0 C 96 % 1015,8 hPa 0,0 l/m 0 min 0 min 0,0 UV-I 8 W/m 0,0 km/h (0 Bft)
20.08.2014 20:38 11,3 C 10,0 C 96 % 1015,8 hPa 0,0 l/m 0 min 0 min 0,0 UV-I 7 W/m 3,5 km/h (1 Bft)
20.08.2014 20:40 11,3 C 10,0 C 96 % 1015,8 hPa 0,0 l/m 0 min 0 min 0,0 UV-I 5 W/m 0,0 km/h (0 Bft)
20.08.2014 20:42 11,3 C 10,0 C 96 % 1015,8 hPa 0,0 l/m 0 min 0 min 0,0 UV-I 0 W/m 0,0 km/h (0 Bft)
20.08.2014 20:44 11,3 C 10,0 C 96 % 1015,7 hPa 0,0 l/m 0 min 0 min 0,0 UV-I 0 W/m 0,0 km/h (0 Bft)
20.08.2014 20:46 11,3 C 10,6 C 96 % 1015,8 hPa 0,0 l/m 0 min 0 min 0,0 UV-I 0 W/m 0,0 km/h (0 Bft)
20.08.2014 20:48 11,3 C 10,6 C 97 % 1015,8 hPa 0,0 l/m 0 min 0 min 0,0 UV-I 0 W/m 0,0 km/h (0 Bft)
20.08.2014 20:50 11,3 C 10,6 C 96 % 1015,8 hPa 0,0 l/m 0 min 0 min 0,0 UV-I 0 W/m 10,7 km/h (2 Bft)
20.08.2014 20:52 11,3 C 10,6 C 96 % 1015,9 hPa 0,0 l/m 0 min 0 min 0,0 UV-I 0 W/m 14,2 km/h (3 Bft)
20.08.2014 20:54 11,3 C 10,6 C 97 % 1015,9 hPa 0,0 l/m 0 min 0 min 0,0 UV-I 0 W/m 17,7 km/h (3 Bft)
20.08.2014 20:56 11,3 C 10,6 C 97 % 1015,9 hPa 0,0 l/m 0 min 0 min 0,0 UV-I 0 W/m 17,7 km/h (3 Bft)
20.08.2014 20:58 11,3 C 10,0 C 97 % 1015,9 hPa 0,0 l/m 0 min 0 min 0,0 UV-I 0 W/m 10,7 km/h (2 Bft)
20.08.2014 21:00 11,3 C 10,0 C 97 % 1015,9 hPa 0,0 l/m 0 min 0 min 0,0 UV-I 0 W/m 14,2 km/h (3 Bft)
20.08.2014 21:02 11,3 C 10,0 C 97 % 1015,9 hPa 0,0 l/m 0 min 0 min 0,0 UV-I 0 W/m 14,2 km/h (3 Bft)
20.08.2014 21:04 11,2 C 10,0 C 97 % 1015,9 hPa 0,0 l/m 0 min 0 min 0,0 UV-I 0 W/m 14,2 km/h (3 Bft)
20.08.2014 21:06 11,2 C 10,0 C 97 % 1015,9 hPa 0,0 l/m 0 min 0 min 0,0 UV-I 0 W/m 14,2 km/h (3 Bft)
20.08.2014 21:08 11,2 C 10,0 C 97 % 1015,9 hPa 0,0 l/m 0 min 0 min 0,0 UV-I 0 W/m 10,7 km/h (2 Bft)
20.08.2014 21:10 11,2 C 10,0 C 97 % 1016,0 hPa 0,0 l/m 0 min 0 min 0,0 UV-I 0 W/m 17,7 km/h (3 Bft)
20.08.2014 21:12 11,2 C 10,0 C 97 % 1016,1 hPa 0,0 l/m 0 min 0 min 0,0 UV-I 0 W/m 17,7 km/h (3 Bft)
20.08.2014 21:14 11,2 C 10,0 C 97 % 1016,1 hPa 0,0 l/m 0 min 0 min 0,0 UV-I 0 W/m 14,2 km/h (3 Bft)
20.08.2014 21:16 11,2 C 10,0 C 97 % 1016,1 hPa 0,0 l/m 0 min 0 min 0,0 UV-I 0 W/m 10,7 km/h (2 Bft)
20.08.2014 21:18 11,2 C 10,0 C 97 % 1016,2 hPa 0,0 l/m 0 min 0 min 0,0 UV-I 0 W/m 3,5 km/h (1 Bft)
20.08.2014 21:20 11,2 C 10,0 C 97 % 1016,3 hPa 0,0 l/m 0 min 0 min 0,0 UV-I 0 W/m 0,0 km/h (0 Bft)
20.08.2014 21:22 11,2 C 10,0 C 97 % 1016,3 hPa 0,0 l/m 0 min 0 min 0,0 UV-I 0 W/m 0,0 km/h (0 Bft)
20.08.2014 21:24 11,3 C 10,6 C 97 % 1016,3 hPa 0,0 l/m 0 min 0 min 0,0 UV-I 0 W/m 10,7 km/h (2 Bft)
20.08.2014 21:26 11,3 C 10,6 C 97 % 1016,3 hPa 0,0 l/m 0 min 0 min 0,0 UV-I 0 W/m 3,5 km/h (1 Bft)
20.08.2014 21:28 11,3 C 10,6 C 97 % 1016,3 hPa 0,0 l/m 0 min 0 min 0,0 UV-I 0 W/m 7,1 km/h (2 Bft)
20.08.2014 21:30 11,3 C 10,6 C 97 % 1016,3 hPa 0,0 l/m 0 min 2 min 0,0 UV-I 0 W/m 14,2 km/h (3 Bft)
20.08.2014 21:32 11,3 C 10,6 C 97 % 1016,3 hPa 0,0 l/m 0 min 0 min 0,0 UV-I 0 W/m 10,7 km/h (2 Bft)
20.08.2014 21:34 11,3 C 10,6 C 97 % 1016,3 hPa 0,0 l/m 0 min 0 min 0,0 UV-I 0 W/m 14,2 km/h (3 Bft)
20.08.2014 21:36 11,3 C 10,6 C 97 % 1016,3 hPa 0,0 l/m 0 min 0 min 0,0 UV-I 0 W/m 7,1 km/h (2 Bft)
20.08.2014 21:38 11,3 C 10,6 C 97 % 1016,2 hPa 0,0 l/m 0 min 0 min 0,0 UV-I 0 W/m 0,0 km/h (0 Bft)
20.08.2014 21:40 11,3 C 10,6 C 98 % 1016,3 hPa 0,0 l/m 0 min 0 min 0,0 UV-I 0 W/m 10,7 km/h (2 Bft)
20.08.2014 21:42 11,2 C 10,6 C 98 % 1016,3 hPa 0,0 l/m 0 min 0 min 0,0 UV-I 0 W/m 14,2 km/h (3 Bft)
20.08.2014 21:44 11,2 C 10,0 C 98 % 1016,3 hPa 0,0 l/m 0 min 0 min 0,0 UV-I 0 W/m 0,0 km/h (0 Bft)
20.08.2014 21:46 11,2 C 10,0 C 98 % 1016,2 hPa 0,0 l/m 0 min 0 min 0,0 UV-I 0 W/m 3,5 km/h (1 Bft)
20.08.2014 21:48 11,2 C 10,0 C 97 % 1016,3 hPa 0,0 l/m 0 min 0 min 0,0 UV-I 0 W/m 0,0 km/h (0 Bft)
20.08.2014 21:50 11,2 C 10,0 C 97 % 1016,3 hPa 0,0 l/m 0 min 0 min 0,0 UV-I 0 W/m 0,0 km/h (0 Bft)
20.08.2014 21:52 11,2 C 10,0 C 97 % 1016,3 hPa 0,0 l/m 0 min 0 min 0,0 UV-I 0 W/m 0,0 km/h (0 Bft)
20.08.2014 21:54 11,2 C 10,0 C 97 % 1016,2 hPa 0,0 l/m 0 min 0 min 0,0 UV-I 0 W/m 0,0 km/h (0 Bft)
20.08.2014 21:56 11,2 C 10,0 C 97 % 1016,3 hPa 0,0 l/m 0 min 0 min 0,0 UV-I 0 W/m 3,5 km/h (1 Bft)
20.08.2014 21:58 11,2 C 10,0 C 98 % 1016,2 hPa 0,0 l/m 0 min 0 min 0,0 UV-I 0 W/m 0,0 km/h (0 Bft)
20.08.2014 22:00 11,2 C 10,0 C 98 % 1016,2 hPa 0,0 l/m 0 min 0 min 0,0 UV-I 0 W/m 0,0 km/h (0 Bft)
20.08.2014 22:02 11,1 C 10,0 C 98 % 1016,2 hPa 0,0 l/m 0 min 0 min 0,0 UV-I 0 W/m 0,0 km/h (0 Bft)
20.08.2014 22:04 11,1 C 10,0 C 98 % 1016,2 hPa 0,0 l/m 0 min 0 min 0,0 UV-I 0 W/m 0,0 km/h (0 Bft)
20.08.2014 22:06 11,1 C 10,0 C 98 % 1016,2 hPa 0,0 l/m 0 min 0 min 0,0 UV-I 0 W/m 3,5 km/h (1 Bft)
20.08.2014 22:08 11,1 C 10,0 C 98 % 1016,2 hPa 0,0 l/m 0 min 0 min 0,0 UV-I 0 W/m 0,0 km/h (0 Bft)
20.08.2014 22:10 11,1 C 10,0 C 98 % 1016,2 hPa 0,0 l/m 0 min 0 min 0,0 UV-I 0 W/m 10,7 km/h (2 Bft)
20.08.2014 22:12 11,1 C 10,0 C 98 % 1016,1 hPa 0,0 l/m 0 min 0 min 0,0 UV-I 0 W/m 17,7 km/h (3 Bft)
20.08.2014 22:14 11,0 C 10,0 C 98 % 1016,2 hPa 0,0 l/m 0 min 0 min 0,0 UV-I 0 W/m 14,2 km/h (3 Bft)
20.08.2014 22:16 11,0 C 10,0 C 98 % 1016,2 hPa 0,0 l/m 0 min 0 min 0,0 UV-I 0 W/m 14,2 km/h (3 Bft)
20.08.2014 22:18 10,9 C 10,0 C 98 % 1016,2 hPa 0,0 l/m 0 min 0 min 0,0 UV-I 0 W/m 0,0 km/h (0 Bft)
20.08.2014 22:20 10,9 C 10,0 C 98 % 1016,3 hPa 0,0 l/m 0 min 0 min 0,0 UV-I 0 W/m 3,5 km/h (1 Bft)
20.08.2014 22:22 10,9 C 10,0 C 98 % 1016,3 hPa 0,0 l/m 0 min 0 min 0,0 UV-I 0 W/m 0,0 km/h (0 Bft)
20.08.2014 22:24 10,9 C 10,0 C 98 % 1016,3 hPa 0,0 l/m 0 min 0 min 0,0 UV-I 0 W/m 0,0 km/h (0 Bft)
20.08.2014 22:26 10,9 C 9,4 C 98 % 1016,4 hPa 0,0 l/m 0 min 0 min 0,0 UV-I 0 W/m 3,5 km/h (1 Bft)
20.08.2014 22:28 10,8 C 9,4 C 98 % 1016,3 hPa 0,0 l/m 0 min 0 min 0,0 UV-I 0 W/m 7,1 km/h (2 Bft)
20.08.2014 22:30 10,8 C 9,4 C 98 % 1016,3 hPa 0,0 l/m 0 min 0 min 0,0 UV-I 0 W/m 14,2 km/h (3 Bft)
20.08.2014 22:32 10,8 C 9,4 C 98 % 1016,3 hPa 0,0 l/m 0 min 0 min 0,0 UV-I 0 W/m 10,7 km/h (2 Bft)
20.08.2014 22:34 10,8 C 9,4 C 98 % 1016,4 hPa 0,0 l/m 0 min 0 min 0,0 UV-I 0 W/m 10,7 km/h (2 Bft)
20.08.2014 22:36 10,8 C 9,4 C 98 % 1016,3 hPa 0,0 l/m 0 min 0 min 0,0 UV-I 0 W/m 3,5 km/h (1 Bft)
20.08.2014 22:38 10,8 C 9,4 C 98 % 1016,3 hPa 0,0 l/m 0 min 0 min 0,0 UV-I 0 W/m 0,0 km/h (0 Bft)
20.08.2014 22:40 10,7 C 9,4 C 98 % 1016,3 hPa 0,0 l/m 0 min 0 min 0,0 UV-I 0 W/m 3,5 km/h (1 Bft)
20.08.2014 22:42 10,7 C 9,4 C 98 % 1016,4 hPa 0,0 l/m 0 min 0 min 0,0 UV-I 0 W/m 0,0 km/h (0 Bft)
20.08.2014 22:44 10,7 C 9,4 C 98 % 1016,3 hPa 0,0 l/m 0 min 0 min 0,0 UV-I 0 W/m 0,0 km/h (0 Bft)
20.08.2014 22:46 10,7 C 9,4 C 98 % 1016,3 hPa 0,0 l/m 0 min 0 min 0,0 UV-I 0 W/m 0,0 km/h (0 Bft)
20.08.2014 22:48 10,7 C 9,4 C 98 % 1016,3 hPa 0,0 l/m 0 min 0 min 0,0 UV-I 0 W/m 0,0 km/h (0 Bft)
20.08.2014 22:50 10,8 C 9,4 C 98 % 1016,3 hPa 0,0 l/m 0 min 0 min 0,0 UV-I 0 W/m 0,0 km/h (0 Bft)
20.08.2014 22:52 10,7 C 9,4 C 98 % 1016,3 hPa 0,0 l/m 0 min 0 min 0,0 UV-I 0 W/m 0,0 km/h (0 Bft)
20.08.2014 22:54 10,7 C 9,4 C 98 % 1016,2 hPa 0,0 l/m 0 min 0 min 0,0 UV-I 0 W/m 0,0 km/h (0 Bft)
20.08.2014 22:56 10,7 C 9,4 C 98 % 1016,2 hPa 0,0 l/m 0 min 0 min 0,0 UV-I 0 W/m 0,0 km/h (0 Bft)
20.08.2014 22:58 10,7 C 9,4 C 98 % 1016,3 hPa 0,0 l/m 0 min 0 min 0,0 UV-I 0 W/m 0,0 km/h (0 Bft)
20.08.2014 23:00 10,7 C 9,4 C 98 % 1016,3 hPa 0,0 l/m 0 min 0 min 0,0 UV-I 0 W/m 0,0 km/h (0 Bft)
20.08.2014 23:02 10,7 C 9,4 C 98 % 1016,3 hPa 0,0 l/m 0 min 0 min 0,0 UV-I 0 W/m 0,0 km/h (0 Bft)
20.08.2014 23:04 10,7 C 9,4 C 98 % 1016,3 hPa 0,0 l/m 0 min 0 min 0,0 UV-I 0 W/m 0,0 km/h (0 Bft)
20.08.2014 23:06 10,7 C 9,4 C 98 % 1016,3 hPa 0,0 l/m 0 min 0 min 0,0 UV-I 0 W/m 0,0 km/h (0 Bft)
20.08.2014 23:08 10,6 C 9,4 C 98 % 1016,3 hPa 0,0 l/m 0 min 0 min 0,0 UV-I 0 W/m 0,0 km/h (0 Bft)
20.08.2014 23:10 10,6 C 9,4 C 98 % 1016,2 hPa 0,0 l/m 0 min 0 min 0,0 UV-I 0 W/m 0,0 km/h (0 Bft)
20.08.2014 23:12 10,6 C 9,4 C 98 % 1016,3 hPa 0,0 l/m 0 min 0 min 0,0 UV-I 0 W/m 0,0 km/h (0 Bft)
20.08.2014 23:14 10,6 C 9,4 C 98 % 1016,3 hPa 0,0 l/m 0 min 0 min 0,0 UV-I 0 W/m 0,0 km/h (0 Bft)
20.08.2014 23:16 10,6 C 9,4 C 98 % 1016,3 hPa 0,0 l/m 0 min 0 min 0,0 UV-I 0 W/m 0,0 km/h (0 Bft)
20.08.2014 23:18 10,5 C 9,4 C 98 % 1016,3 hPa 0,0 l/m 0 min 0 min 0,0 UV-I 0 W/m 0,0 km/h (0 Bft)
20.08.2014 23:20 10,4 C 9,4 C 98 % 1016,2 hPa 0,0 l/m 0 min 0 min 0,0 UV-I 0 W/m 0,0 km/h (0 Bft)
20.08.2014 23:22 10,4 C 9,4 C 98 % 1016,3 hPa 0,0 l/m 0 min 0 min 0,0 UV-I 0 W/m 0,0 km/h (0 Bft)
20.08.2014 23:24 10,5 C 9,4 C 98 % 1016,3 hPa 0,0 l/m 0 min 0 min 0,0 UV-I 0 W/m 0,0 km/h (0 Bft)
20.08.2014 23:26 10,5 C 8,9 C 98 % 1016,3 hPa 0,0 l/m 0 min 0 min 0,0 UV-I 0 W/m 0,0 km/h (0 Bft)
20.08.2014 23:28 10,5 C 8,9 C 98 % 1016,3 hPa 0,0 l/m 0 min 0 min 0,0 UV-I 0 W/m 0,0 km/h (0 Bft)
20.08.2014 23:30 10,5 C 8,9 C 98 % 1016,3 hPa 0,0 l/m 0 min 0 min 0,0 UV-I 0 W/m 0,0 km/h (0 Bft)
20.08.2014 23:32 10,5 C 8,9 C 98 % 1016,3 hPa 0,0 l/m 0 min 0 min 0,0 UV-I 0 W/m 0,0 km/h (0 Bft)
20.08.2014 23:34 10,4 C 8,9 C 98 % 1016,3 hPa 0,0 l/m 0 min 0 min 0,0 UV-I 0 W/m 0,0 km/h (0 Bft)
20.08.2014 23:36 10,4 C 8,9 C 98 % 1016,3 hPa 0,0 l/m 0 min 0 min 0,0 UV-I 0 W/m 0,0 km/h (0 Bft)
20.08.2014 23:38 10,4 C 8,9 C 98 % 1016,3 hPa 0,0 l/m 0 min 0 min 0,0 UV-I 0 W/m 0,0 km/h (0 Bft)
20.08.2014 23:40 10,4 C 8,9 C 98 % 1016,3 hPa 0,0 l/m 0 min 0 min 0,0 UV-I 0 W/m 0,0 km/h (0 Bft)
20.08.2014 23:42 10,4 C 8,9 C 98 % 1016,3 hPa 0,0 l/m 0 min 0 min 0,0 UV-I 0 W/m 0,0 km/h (0 Bft)
20.08.2014 23:44 10,4 C 8,9 C 98 % 1016,3 hPa 0,0 l/m 0 min 0 min 0,0 UV-I 0 W/m 0,0 km/h (0 Bft)
20.08.2014 23:46 10,4 C 8,9 C 98 % 1016,2 hPa 0,0 l/m 0 min 0 min 0,0 UV-I 0 W/m 0,0 km/h (0 Bft)
20.08.2014 23:48 10,4 C 8,9 C 98 % 1016,2 hPa 0,0 l/m 0 min 0 min 0,0 UV-I 0 W/m 0,0 km/h (0 Bft)
20.08.2014 23:50 10,4 C 8,9 C 98 % 1016,2 hPa 0,0 l/m 0 min 0 min 0,0 UV-I 0 W/m 0,0 km/h (0 Bft)
20.08.2014 23:52 10,4 C 8,9 C 98 % 1016,2 hPa 0,0 l/m 0 min 0 min 0,0 UV-I 0 W/m 0,0 km/h (0 Bft)
20.08.2014 23:54 10,4 C 8,9 C 98 % 1016,2 hPa 0,0 l/m 0 min 0 min 0,0 UV-I 0 W/m 0,0 km/h (0 Bft)
20.08.2014 23:56 10,4 C 8,9 C 98 % 1016,3 hPa 0,0 l/m 0 min 0 min 0,0 UV-I 0 W/m 0,0 km/h (0 Bft)
20.08.2014 23:58 10,4 C 9,4 C 98 % 1016,2 hPa 0,0 l/m 0 min 0 min 0,0 UV-I 0 W/m 0,0 km/h (0 Bft)
_ Min-Zeit 06:48 01:40 16:02 00:12 - - - - - 01:46
Minimum _ 8,2 C 7,8 C 54 % 1014,4 hPa - - - - - 0,0 km/h (0 Bft)
_ Max-Zeit 00:00 16:24 21:40 22:26 18:24 06:44 18:18 13:20 14:08 17:50
Maximum _ 21,0 C 21,7 C 98 % 1016,4 hPa 1,0 l/m 2 min 2 min 3,8 UV-I 870 W/m 49,5 km/h
N-NO (6 Bft)
Durchschnitt _ 12,7 C 11,8 C 83 % 1015,5 hPa #6,6 l/m #8:20 h #1:00 h 2,0 UV-I 333 W/m 17,0 km/h (3 Bft)
© 2014 W. Hausmann